Wetterdaten: Sonntag, 26.01.2020
Datum Zeit Temp. Aussen Temp. o. S. Temp +5cm Feuchte Auss Luftdruck Regen Sonnenschein Regendauer Solar Windben Empfang
26.01.2020 00:00 2,4 C 1,7 C 1,1 C 99 % 1020,5 hPa 0,0 l/m 0 min 0 min 0 W/m 3,2 km/h (1 Bft) 97,83 %
26.01.2020 00:02 2,4 C 1,7 C 1,1 C 99 % 1020,4 hPa 0,0 l/m 0 min 0 min 0 W/m 3,2 km/h (1 Bft) 100,00 %
26.01.2020 00:04 2,4 C 1,7 C 1,1 C 99 % 1020,4 hPa 0,0 l/m 0 min 0 min 0 W/m 3,2 km/h (1 Bft) 95,74 %
26.01.2020 00:08 2,4 C 1,7 C 1,1 C 99 % 1020,3 hPa 0,0 l/m 0 min 0 min 0 W/m 3,2 km/h (1 Bft) 97,87 %
26.01.2020 00:10 2,4 C 1,7 C 1,1 C 99 % 1020,3 hPa 0,0 l/m 0 min 0 min 0 W/m 0,0 km/h (0 Bft) 97,87 %
26.01.2020 00:12 2,4 C 1,7 C 1,1 C 99 % 1020,3 hPa 0,0 l/m 0 min 0 min 0 W/m 12,9 km/h (3 Bft) 97,83 %
26.01.2020 00:14 2,4 C 1,7 C 1,1 C 100 % 1020,3 hPa 0,0 l/m 0 min 0 min 0 W/m 16,1 km/h (3 Bft) 97,87 %
26.01.2020 00:16 2,4 C 1,7 C 1,1 C 100 % 1020,3 hPa 0,0 l/m 0 min 0 min 0 W/m 16,1 km/h (3 Bft) 93,62 %
26.01.2020 00:18 2,4 C 1,7 C 1,1 C 100 % 1020,3 hPa 0,0 l/m 0 min 0 min 0 W/m 16,1 km/h (3 Bft) 91,49 %
26.01.2020 00:20 2,4 C 1,7 C 1,1 C 100 % 1020,3 hPa 0,0 l/m 0 min 0 min 0 W/m 12,9 km/h (3 Bft) 93,62 %
26.01.2020 00:22 2,4 C 1,7 C 1,1 C 100 % 1020,2 hPa 0,0 l/m 0 min 0 min 0 W/m 3,2 km/h (1 Bft) 95,74 %
26.01.2020 00:24 2,4 C 1,7 C 1,1 C 100 % 1020,2 hPa 0,0 l/m 0 min 0 min 0 W/m 3,2 km/h (1 Bft) 95,65 %
26.01.2020 00:26 2,4 C 1,7 C 1,1 C 100 % 1020,2 hPa 0,0 l/m 0 min 0 min 0 W/m 6,4 km/h (2 Bft) 95,74 %
26.01.2020 00:28 2,4 C 1,7 C 1,1 C 100 % 1020,2 hPa 0,0 l/m 0 min 0 min 0 W/m 6,4 km/h (2 Bft) 95,74 %
26.01.2020 00:30 2,3 C 1,7 C 1,1 C 100 % 1020,2 hPa 0,0 l/m 0 min 0 min 0 W/m 3,2 km/h (1 Bft) 95,74 %
26.01.2020 00:32 2,3 C 1,7 C 1,1 C 100 % 1020,2 hPa 0,0 l/m 0 min 0 min 0 W/m 3,2 km/h (1 Bft) 95,74 %
26.01.2020 00:34 2,3 C 1,7 C 1,1 C 100 % 1020,2 hPa 0,0 l/m 0 min 0 min 0 W/m 6,4 km/h (2 Bft) 93,62 %
26.01.2020 00:36 2,3 C 1,7 C 1,1 C 100 % 1020,2 hPa 0,0 l/m 0 min 0 min 0 W/m 6,4 km/h (2 Bft) 97,83 %
26.01.2020 00:38 2,3 C 1,7 C 1,1 C 100 % 1020,2 hPa 0,0 l/m 0 min 0 min 0 W/m 12,9 km/h (3 Bft) 95,74 %
26.01.2020 00:40 2,3 C 1,7 C 1,1 C 100 % 1020,2 hPa 0,0 l/m 0 min 0 min 0 W/m 12,9 km/h (3 Bft) 97,87 %
26.01.2020 00:42 2,3 C 1,7 C 1,1 C 100 % 1020,2 hPa 0,0 l/m 0 min 0 min 0 W/m 3,2 km/h (1 Bft) 97,87 %
26.01.2020 00:44 2,3 C 1,7 C 1,1 C 100 % 1020,2 hPa 0,0 l/m 0 min 0 min 0 W/m 16,1 km/h (3 Bft) 97,87 %
26.01.2020 00:46 2,3 C 1,7 C 1,1 C 99 % 1020,2 hPa 0,0 l/m 0 min 0 min 0 W/m 16,1 km/h (3 Bft) 95,65 %
26.01.2020 00:48 2,3 C 1,7 C 1,1 C 99 % 1020,2 hPa 0,0 l/m 0 min 0 min 0 W/m 6,4 km/h (2 Bft) 93,62 %
26.01.2020 00:50 2,3 C 1,7 C 1,1 C 99 % 1020,1 hPa 0,0 l/m 0 min 0 min 0 W/m 6,4 km/h (2 Bft) 97,87 %
26.01.2020 00:52 2,3 C 1,7 C 1,1 C 99 % 1020,1 hPa 0,0 l/m 0 min 0 min 0 W/m 19,3 km/h (3 Bft) 97,87 %
26.01.2020 00:54 2,3 C 1,7 C 1,1 C 99 % 1020,1 hPa 0,0 l/m 0 min 0 min 0 W/m 12,9 km/h (3 Bft) 93,62 %
26.01.2020 00:56 2,3 C 1,7 C 1,1 C 99 % 1020,1 hPa 0,0 l/m 0 min 0 min 0 W/m 12,9 km/h (3 Bft) 93,62 %
26.01.2020 00:58 2,3 C 1,7 C 1,1 C 99 % 1020,1 hPa 0,0 l/m 0 min 0 min 0 W/m 3,2 km/h (1 Bft) 97,87 %
26.01.2020 01:00 2,3 C 1,7 C 1,1 C 99 % 1020,1 hPa 0,0 l/m 0 min 0 min 0 W/m 3,2 km/h (1 Bft) 95,65 %
26.01.2020 01:02 2,2 C 1,7 C 1,1 C 99 % 1020,0 hPa 0,0 l/m 0 min 0 min 0 W/m 3,2 km/h (1 Bft) 100,00 %
26.01.2020 01:04 2,3 C 1,7 C 1,1 C 100 % 1020,0 hPa 0,0 l/m 0 min 0 min 0 W/m 6,4 km/h (2 Bft) 91,49 %
26.01.2020 01:06 2,2 C 1,7 C 1,1 C 99 % 1020,0 hPa 0,0 l/m 0 min 0 min 0 W/m 3,2 km/h (1 Bft) 100,00 %
26.01.2020 01:08 2,2 C 1,7 C 1,1 C 99 % 1020,0 hPa 0,0 l/m 0 min 0 min 0 W/m 12,9 km/h (3 Bft) 97,87 %
26.01.2020 01:10 2,3 C 1,7 C 1,1 C 99 % 1020,0 hPa 0,0 l/m 0 min 0 min 0 W/m 12,9 km/h (3 Bft) 100,00 %
26.01.2020 01:12 2,2 C 1,7 C 1,1 C 100 % 1020,0 hPa 0,0 l/m 0 min 0 min 0 W/m 6,4 km/h (2 Bft) 93,62 %
26.01.2020 01:14 2,2 C 1,7 C 1,1 C 100 % 1019,9 hPa 0,0 l/m 0 min 0 min 0 W/m 6,4 km/h (2 Bft) 100,00 %
26.01.2020 01:16 2,2 C 1,7 C 1,1 C 99 % 1019,9 hPa 0,0 l/m 0 min 0 min 0 W/m 6,4 km/h (2 Bft) 95,74 %
26.01.2020 01:18 2,2 C 1,7 C 1,1 C 100 % 1019,9 hPa 0,0 l/m 0 min 0 min 0 W/m 16,1 km/h (3 Bft) 97,87 %
26.01.2020 01:20 2,2 C 1,7 C 1,1 C 100 % 1019,9 hPa 0,0 l/m 0 min 0 min 0 W/m 19,3 km/h (3 Bft) 97,87 %
26.01.2020 01:22 2,2 C 1,7 C 1,1 C 100 % 1019,9 hPa 0,0 l/m 0 min 0 min 0 W/m 16,1 km/h (3 Bft) 95,65 %
26.01.2020 01:24 2,2 C 1,7 C 1,1 C 100 % 1019,8 hPa 0,0 l/m 0 min 0 min 0 W/m 19,3 km/h (3 Bft) 97,87 %
26.01.2020 01:26 2,2 C 1,7 C 1,1 C 100 % 1019,8 hPa 0,0 l/m 0 min 0 min 0 W/m 16,1 km/h (3 Bft) 95,74 %
26.01.2020 01:28 2,2 C 1,1 C 1,1 C 100 % 1019,8 hPa 0,0 l/m 0 min 0 min 0 W/m 16,1 km/h (3 Bft) 95,74 %
26.01.2020 01:30 2,2 C 1,1 C 1,1 C 100 % 1019,8 hPa 0,0 l/m 0 min 0 min 0 W/m 16,1 km/h (3 Bft) 97,87 %
26.01.2020 01:32 2,2 C 1,1 C 1,1 C 100 % 1019,8 hPa 0,0 l/m 0 min 0 min 0 W/m 16,1 km/h (3 Bft) 97,83 %
26.01.2020 01:34 2,2 C 1,7 C 1,1 C 100 % 1019,8 hPa 0,0 l/m 0 min 0 min 0 W/m 16,1 km/h (3 Bft) 97,87 %
26.01.2020 01:36 2,1 C 1,7 C 1,1 C 100 % 1019,8 hPa 0,0 l/m 0 min 0 min 0 W/m 12,9 km/h (3 Bft) 97,87 %
26.01.2020 01:38 2,1 C 1,7 C 1,1 C 100 % 1019,8 hPa 0,0 l/m 0 min 0 min 0 W/m 12,9 km/h (3 Bft) 93,62 %
26.01.2020 01:40 2,2 C 1,7 C 1,1 C 100 % 1019,8 hPa 0,0 l/m 0 min 0 min 0 W/m 6,4 km/h (2 Bft) 100,00 %
26.01.2020 01:42 2,1 C 1,7 C 1,1 C 100 % 1019,8 hPa 0,0 l/m 0 min 0 min 0 W/m 3,2 km/h (1 Bft) 100,00 %
26.01.2020 01:44 2,2 C 1,7 C 1,1 C 100 % 1019,8 hPa 0,0 l/m 0 min 0 min 0 W/m 16,1 km/h (3 Bft) 97,83 %
26.01.2020 01:46 2,1 C 1,7 C 1,1 C 100 % 1019,8 hPa 0,0 l/m 0 min 0 min 0 W/m 12,9 km/h (3 Bft) 100,00 %
26.01.2020 01:48 2,2 C 1,7 C 1,1 C 100 % 1019,7 hPa 0,0 l/m 0 min 0 min 0 W/m 19,3 km/h (3 Bft) 97,87 %
26.01.2020 01:50 2,2 C 1,7 C 1,1 C 100 % 1019,7 hPa 0,0 l/m 0 min 0 min 0 W/m 12,9 km/h (3 Bft) 95,74 %
26.01.2020 01:52 2,2 C 1,7 C 1,1 C 100 % 1019,7 hPa 0,0 l/m 0 min 0 min 0 W/m 22,5 km/h (4 Bft) 95,74 %
26.01.2020 01:54 2,2 C 1,7 C 1,1 C 100 % 1019,6 hPa 0,0 l/m 0 min 0 min 0 W/m 16,1 km/h (3 Bft) 93,62 %
26.01.2020 01:56 2,1 C 1,7 C 1,1 C 100 % 1019,7 hPa 0,0 l/m 0 min 0 min 0 W/m 6,4 km/h (2 Bft) 95,65 %
26.01.2020 01:58 2,1 C 1,7 C 1,1 C 100 % 1019,6 hPa 0,0 l/m 0 min 0 min 0 W/m 6,4 km/h (2 Bft) 93,62 %
26.01.2020 02:00 2,1 C 1,7 C 1,1 C 100 % 1019,6 hPa 0,0 l/m 0 min 0 min 0 W/m 12,9 km/h (3 Bft) 95,74 %
26.01.2020 02:02 2,1 C 1,7 C 1,1 C 100 % 1019,5 hPa 0,0 l/m 0 min 0 min 0 W/m 6,4 km/h (2 Bft) 95,74 %
26.01.2020 02:04 2,1 C 1,7 C 1,1 C 100 % 1019,6 hPa 0,0 l/m 0 min 0 min 0 W/m 16,1 km/h (3 Bft) 91,49 %
26.01.2020 02:06 2,2 C 1,7 C 1,1 C 100 % 1019,5 hPa 0,0 l/m 0 min 0 min 0 W/m 16,1 km/h (3 Bft) 91,49 %
26.01.2020 02:08 2,1 C 1,7 C 1,1 C 100 % 1019,5 hPa 0,0 l/m 0 min 0 min 0 W/m 12,9 km/h (3 Bft) 97,83 %
26.01.2020 02:10 2,1 C 1,7 C 1,1 C 100 % 1019,5 hPa 0,0 l/m 0 min 0 min 0 W/m 3,2 km/h (1 Bft) 95,74 %
26.01.2020 02:12 2,1 C 1,7 C 1,1 C 100 % 1019,6 hPa 0,0 l/m 0 min 0 min 0 W/m 16,1 km/h (3 Bft) 91,49 %
26.01.2020 02:14 2,1 C 1,7 C 1,1 C 100 % 1019,5 hPa 0,0 l/m 0 min 0 min 0 W/m 6,4 km/h (2 Bft) 97,87 %
26.01.2020 02:16 2,1 C 1,7 C 1,1 C 100 % 1019,5 hPa 0,0 l/m 0 min 0 min 0 W/m 12,9 km/h (3 Bft) 97,87 %
26.01.2020 02:18 2,2 C 1,7 C 1,1 C 100 % 1019,5 hPa 0,0 l/m 0 min 0 min 0 W/m 19,3 km/h (3 Bft) 95,74 %
26.01.2020 02:20 2,1 C 1,1 C 1,1 C 100 % 1019,5 hPa 0,0 l/m 0 min 0 min 0 W/m 19,3 km/h (3 Bft) 91,30 %
26.01.2020 02:22 2,1 C 1,7 C 1,1 C 100 % 1019,5 hPa 0,0 l/m 0 min 0 min 0 W/m 16,1 km/h (3 Bft) 93,62 %
26.01.2020 02:24 2,1 C 1,7 C 1,1 C 100 % 1019,4 hPa 0,0 l/m 0 min 0 min 0 W/m 12,9 km/h (3 Bft) 95,74 %
26.01.2020 02:26 2,1 C 1,7 C 1,1 C 100 % 1019,5 hPa 0,0 l/m 0 min 0 min 0 W/m 19,3 km/h (3 Bft) 93,62 %
26.01.2020 02:28 2,1 C 1,7 C 1,1 C 100 % 1019,4 hPa 0,0 l/m 0 min 0 min 0 W/m 22,5 km/h (4 Bft) 89,36 %
26.01.2020 02:30 2,1 C 1,7 C 1,1 C 100 % 1019,4 hPa 0,0 l/m 0 min 0 min 0 W/m 19,3 km/h (3 Bft) 93,48 %
26.01.2020 02:32 2,1 C 1,1 C 1,1 C 100 % 1019,4 hPa 0,0 l/m 0 min 0 min 0 W/m 16,1 km/h (3 Bft) 93,62 %
26.01.2020 02:34 2,1 C 1,1 C 1,1 C 100 % 1019,4 hPa 0,0 l/m 0 min 0 min 0 W/m 16,1 km/h (3 Bft) 97,87 %
26.01.2020 02:36 2,1 C 1,1 C 1,1 C 100 % 1019,4 hPa 0,0 l/m 0 min 0 min 0 W/m 12,9 km/h (3 Bft) 93,62 %
26.01.2020 02:38 2,1 C 1,1 C 1,1 C 100 % 1019,3 hPa 0,0 l/m 0 min 0 min 0 W/m 12,9 km/h (3 Bft) 95,74 %
26.01.2020 02:40 2,1 C 1,1 C 1,1 C 100 % 1019,3 hPa 0,0 l/m 0 min 0 min 0 W/m 19,3 km/h (3 Bft) 93,62 %
26.01.2020 02:42 2,1 C 1,1 C 1,1 C 100 % 1019,2 hPa 0,0 l/m 0 min 0 min 0 W/m 16,1 km/h (3 Bft) 97,83 %
26.01.2020 02:44 2,1 C 1,1 C 1,1 C 100 % 1019,2 hPa 0,0 l/m 0 min 0 min 0 W/m 12,9 km/h (3 Bft) 93,62 %
26.01.2020 02:46 2,1 C 1,1 C 1,1 C 100 % 1019,2 hPa 0,0 l/m 0 min 0 min 0 W/m 12,9 km/h (3 Bft) 95,74 %
26.01.2020 02:48 2,1 C 1,1 C 1,1 C 100 % 1019,2 hPa 0,0 l/m 0 min 0 min 0 W/m 19,3 km/h (3 Bft) 95,74 %
26.01.2020 02:50 2,1 C 1,1 C 1,1 C 100 % 1019,2 hPa 0,0 l/m 0 min 0 min 0 W/m 16,1 km/h (3 Bft) 95,74 %
26.01.2020 02:52 2,0 C 1,1 C 1,1 C 100 % 1019,2 hPa 0,0 l/m 0 min 0 min 0 W/m 22,5 km/h (4 Bft) 95,74 %
26.01.2020 02:54 2,0 C 1,1 C 1,1 C 100 % 1019,2 hPa 0,0 l/m 0 min 0 min 0 W/m 16,1 km/h (3 Bft) 97,83 %
26.01.2020 02:56 2,0 C 1,1 C 1,1 C 100 % 1019,2 hPa 0,0 l/m 0 min 0 min 0 W/m 12,9 km/h (3 Bft) 93,62 %
26.01.2020 02:58 2,0 C 1,1 C 1,1 C 100 % 1019,2 hPa 0,0 l/m 0 min 0 min 0 W/m 12,9 km/h (3 Bft) 95,74 %
26.01.2020 03:00 2,0 C 1,1 C 1,1 C 100 % 1019,1 hPa 0,0 l/m 0 min 0 min 0 W/m 12,9 km/h (3 Bft) 93,62 %
26.01.2020 03:02 1,9 C 1,1 C 1,1 C 100 % 1019,2 hPa 0,0 l/m 0 min 0 min 0 W/m 12,9 km/h (3 Bft) 95,74 %
26.01.2020 03:04 1,9 C 1,1 C 1,1 C 100 % 1019,1 hPa 0,0 l/m 0 min 0 min 0 W/m 19,3 km/h (3 Bft) 93,62 %
26.01.2020 03:06 1,9 C 1,1 C 1,1 C 100 % 1019,1 hPa 0,0 l/m 0 min 0 min 0 W/m 22,5 km/h (4 Bft) 97,83 %
26.01.2020 03:08 1,9 C 1,1 C 1,1 C 100 % 1019,1 hPa 0,0 l/m 0 min 0 min 0 W/m 9,7 km/h (2 Bft) 95,74 %
26.01.2020 03:10 1,9 C 1,1 C 1,1 C 100 % 1019,1 hPa 0,0 l/m 0 min 0 min 0 W/m 16,1 km/h (3 Bft) 93,62 %
26.01.2020 03:12 1,9 C 1,1 C 1,1 C 100 % 1019,1 hPa 0,0 l/m 0 min 0 min 0 W/m 12,9 km/h (3 Bft) 93,62 %
26.01.2020 03:14 1,9 C 1,1 C 1,1 C 100 % 1019,1 hPa 0,0 l/m 0 min 0 min 0 W/m 19,3 km/h (3 Bft) 93,62 %
26.01.2020 03:16 1,9 C 1,1 C 1,1 C 100 % 1019,1 hPa 0,0 l/m 0 min 0 min 0 W/m 22,5 km/h (4 Bft) 95,74 %
26.01.2020 03:18 1,9 C 1,1 C 0,6 C 100 % 1019,0 hPa 0,0 l/m 0 min 0 min 0 W/m 16,1 km/h (3 Bft) 93,48 %
26.01.2020 03:20 1,9 C 1,1 C 0,6 C 100 % 1019,0 hPa 0,0 l/m 0 min 0 min 0 W/m 12,9 km/h (3 Bft) 93,62 %
26.01.2020 03:22 1,9 C 1,1 C 0,6 C 100 % 1018,9 hPa 0,0 l/m 0 min 0 min 0 W/m 19,3 km/h (3 Bft) 97,87 %
26.01.2020 03:24 1,8 C 1,1 C 0,6 C 100 % 1018,9 hPa 0,0 l/m 0 min 0 min 0 W/m 6,4 km/h (2 Bft) 93,62 %
26.01.2020 03:26 1,8 C 1,1 C 0,6 C 100 % 1019,0 hPa 0,0 l/m 0 min 0 min 0 W/m 16,1 km/h (3 Bft) 97,87 %
26.01.2020 03:28 1,8 C 1,1 C 0,6 C 100 % 1018,9 hPa 0,0 l/m 0 min 0 min 0 W/m 16,1 km/h (3 Bft) 97,83 %
26.01.2020 03:30 1,8 C 1,1 C 0,6 C 100 % 1018,9 hPa 0,0 l/m 0 min 0 min 0 W/m 6,4 km/h (2 Bft) 97,87 %
26.01.2020 03:32 1,8 C 1,1 C 1,1 C 100 % 1018,9 hPa 0,0 l/m 0 min 0 min 0 W/m 3,2 km/h (1 Bft) 93,62 %
26.01.2020 03:34 1,8 C 1,1 C 0,6 C 100 % 1018,9 hPa 0,0 l/m 0 min 0 min 0 W/m 12,9 km/h (3 Bft) 97,87 %
26.01.2020 03:36 1,8 C 1,1 C 0,6 C 100 % 1018,9 hPa 0,0 l/m 0 min 0 min 0 W/m 6,4 km/h (2 Bft) 95,74 %
26.01.2020 03:38 1,8 C 1,1 C 0,6 C 100 % 1019,0 hPa 0,0 l/m 0 min 0 min 0 W/m 19,3 km/h (3 Bft) 100,00 %
26.01.2020 03:40 1,8 C 1,1 C 0,6 C 100 % 1018,9 hPa 0,0 l/m 0 min 0 min 0 W/m 12,9 km/h (3 Bft) 100,00 %
26.01.2020 03:42 1,8 C 1,1 C 0,6 C 100 % 1018,8 hPa 0,0 l/m 0 min 0 min 0 W/m 19,3 km/h (3 Bft) 95,74 %
26.01.2020 03:44 1,8 C 1,1 C 0,6 C 100 % 1018,8 hPa 0,0 l/m 0 min 0 min 0 W/m 19,3 km/h (3 Bft) 95,74 %
26.01.2020 03:46 1,8 C 1,1 C 0,6 C 100 % 1018,8 hPa 0,0 l/m 0 min 0 min 0 W/m 16,1 km/h (3 Bft) 100,00 %
26.01.2020 03:48 1,8 C 1,1 C 0,6 C 100 % 1018,7 hPa 0,0 l/m 0 min 0 min 0 W/m 16,1 km/h (3 Bft) 100,00 %
26.01.2020 03:50 1,8 C 1,1 C 0,6 C 100 % 1018,7 hPa 0,0 l/m 0 min 0 min 0 W/m 16,1 km/h (3 Bft) 100,00 %
26.01.2020 03:52 1,8 C 1,1 C 0,6 C 100 % 1018,7 hPa 0,0 l/m 0 min 0 min 0 W/m 16,1 km/h (3 Bft) 95,65 %
26.01.2020 03:54 1,7 C 1,1 C 0,6 C 100 % 1018,6 hPa 0,0 l/m 0 min 0 min 0 W/m 12,9 km/h (3 Bft) 97,87 %
26.01.2020 03:56 1,7 C 1,1 C 0,6 C 100 % 1018,6 hPa 0,0 l/m 0 min 0 min 0 W/m 22,5 km/h (4 Bft) 100,00 %
26.01.2020 03:58 1,7 C 1,1 C 0,6 C 100 % 1018,7 hPa 0,0 l/m 0 min 0 min 0 W/m 16,1 km/h (3 Bft) 91,49 %
26.01.2020 04:00 1,7 C 1,1 C 0,6 C 100 % 1018,7 hPa 0,0 l/m 0 min 0 min 0 W/m 12,9 km/h (3 Bft) 97,87 %
26.01.2020 04:02 1,7 C 1,1 C 0,6 C 100 % 1018,6 hPa 0,0 l/m 0 min 0 min 0 W/m 12,9 km/h (3 Bft) 90,91 %
26.01.2020 04:04 1,7 C 1,1 C 0,6 C 100 % 1018,6 hPa 0,0 l/m 0 min 0 min 0 W/m 16,1 km/h (3 Bft) 97,83 %
26.01.2020 04:06 1,7 C 1,1 C 0,6 C 100 % 1018,6 hPa 0,0 l/m 0 min 0 min 0 W/m 12,9 km/h (3 Bft) 97,87 %
26.01.2020 04:08 1,7 C 1,1 C 0,6 C 100 % 1018,6 hPa 0,0 l/m 0 min 0 min 0 W/m 12,9 km/h (3 Bft) 100,00 %
26.01.2020 04:10 1,7 C 1,1 C 0,6 C 100 % 1018,6 hPa 0,0 l/m 0 min 0 min 0 W/m 16,1 km/h (3 Bft) 91,49 %
26.01.2020 04:12 1,7 C 1,1 C 0,6 C 100 % 1018,6 hPa 0,0 l/m 0 min 0 min 0 W/m 16,1 km/h (3 Bft) 100,00 %
26.01.2020 04:14 1,7 C 1,1 C 0,6 C 100 % 1018,6 hPa 0,0 l/m 0 min 0 min 0 W/m 16,1 km/h (3 Bft) 100,00 %
26.01.2020 04:16 1,7 C 1,1 C 0,6 C 100 % 1018,4 hPa 0,0 l/m 0 min 0 min 0 W/m 25,7 km/h (4 Bft) 100,00 %
26.01.2020 04:18 1,7 C 1,1 C 0,6 C 100 % 1018,4 hPa 0,0 l/m 0 min 0 min 0 W/m 25,7 km/h (4 Bft) 97,87 %
26.01.2020 04:20 1,7 C 1,1 C 0,6 C 100 % 1018,5 hPa 0,0 l/m 0 min 0 min 0 W/m 22,5 km/h (4 Bft) 100,00 %
26.01.2020 04:22 1,6 C 1,1 C 0,6 C 100 % 1018,5 hPa 0,0 l/m 0 min 0 min 0 W/m 22,5 km/h (4 Bft) 100,00 %
26.01.2020 04:24 1,6 C 1,1 C 0,6 C 100 % 1018,5 hPa 0,0 l/m 0 min 0 min 0 W/m 12,9 km/h (3 Bft) 97,87 %
26.01.2020 04:26 1,6 C 1,1 C 0,6 C 100 % 1018,4 hPa 0,0 l/m 0 min 0 min 0 W/m 12,9 km/h (3 Bft) 97,83 %
26.01.2020 04:28 1,6 C 1,1 C 0,6 C 100 % 1018,3 hPa 0,0 l/m 0 min 0 min 0 W/m 3,2 km/h (1 Bft) 100,00 %
26.01.2020 04:30 1,6 C 1,1 C 0,6 C 100 % 1018,3 hPa 0,0 l/m 0 min 0 min 0 W/m 16,1 km/h (3 Bft) 100,00 %
26.01.2020 04:32 1,6 C 1,1 C 0,6 C 100 % 1018,3 hPa 0,0 l/m 0 min 0 min 0 W/m 16,1 km/h (3 Bft) 95,74 %
26.01.2020 04:34 1,6 C 1,1 C 0,6 C 100 % 1018,3 hPa 0,0 l/m 0 min 0 min 0 W/m 12,9 km/h (3 Bft) 95,74 %
26.01.2020 04:36 1,6 C 1,1 C 0,6 C 100 % 1018,3 hPa 0,0 l/m 0 min 0 min 0 W/m 3,2 km/h (1 Bft) 100,00 %
26.01.2020 04:38 1,6 C 1,1 C 0,6 C 100 % 1018,2 hPa 0,0 l/m 0 min 0 min 0 W/m 16,1 km/h (3 Bft) 97,83 %
26.01.2020 04:40 1,6 C 1,1 C 0,6 C 100 % 1018,2 hPa 0,0 l/m 0 min 0 min 0 W/m 12,9 km/h (3 Bft) 95,74 %
26.01.2020 04:42 1,6 C 0,6 C 0,6 C 100 % 1018,1 hPa 0,0 l/m 0 min 0 min 0 W/m 16,1 km/h (3 Bft) 97,87 %
26.01.2020 04:44 1,6 C 1,1 C 0,6 C 100 % 1018,2 hPa 0,0 l/m 0 min 0 min 0 W/m 12,9 km/h (3 Bft) 91,49 %
26.01.2020 04:46 1,6 C 1,1 C 0,6 C 100 % 1018,2 hPa 0,0 l/m 0 min 0 min 0 W/m 12,9 km/h (3 Bft) 93,62 %
26.01.2020 04:48 1,6 C 0,6 C 0,6 C 100 % 1018,2 hPa 0,0 l/m 0 min 0 min 0 W/m 16,1 km/h (3 Bft) 93,62 %
26.01.2020 04:50 1,6 C 0,6 C 0,6 C 100 % 1018,0 hPa 0,0 l/m 0 min 0 min 0 W/m 16,1 km/h (3 Bft) 95,65 %
26.01.2020 04:52 1,5 C 0,6 C 0,6 C 100 % 1018,0 hPa 0,0 l/m 0 min 0 min 0 W/m 16,1 km/h (3 Bft) 97,87 %
26.01.2020 04:54 1,5 C 0,6 C 0,6 C 100 % 1018,1 hPa 0,0 l/m 0 min 0 min 0 W/m 19,3 km/h (3 Bft) 95,74 %
26.01.2020 04:56 1,4 C 0,6 C 0,6 C 100 % 1018,1 hPa 0,0 l/m 0 min 0 min 0 W/m 19,3 km/h (3 Bft) 95,74 %
26.01.2020 04:58 1,4 C 0,6 C 0,6 C 100 % 1018,1 hPa 0,0 l/m 0 min 0 min 0 W/m 19,3 km/h (3 Bft) 97,87 %
26.01.2020 05:00 1,4 C 0,6 C 0,6 C 100 % 1018,2 hPa 0,0 l/m 0 min 0 min 0 W/m 19,3 km/h (3 Bft) 97,87 %
26.01.2020 05:02 1,4 C 0,6 C 0,6 C 100 % 1018,2 hPa 0,0 l/m 0 min 0 min 0 W/m 19,3 km/h (3 Bft) 93,48 %
26.01.2020 05:04 1,3 C 0,6 C 0,6 C 100 % 1018,1 hPa 0,0 l/m 0 min 0 min 0 W/m 19,3 km/h (3 Bft) 97,87 %
26.01.2020 05:06 1,3 C 0,6 C 0,6 C 100 % 1018,1 hPa 0,0 l/m 0 min 0 min 0 W/m 22,5 km/h (4 Bft) 95,74 %
26.01.2020 05:08 1,3 C 0,6 C 0,6 C 100 % 1018,1 hPa 0,0 l/m 0 min 0 min 0 W/m 16,1 km/h (3 Bft) 93,62 %
26.01.2020 05:10 1,3 C 0,6 C 0,6 C 100 % 1018,1 hPa 0,0 l/m 0 min 0 min 0 W/m 16,1 km/h (3 Bft) 95,74 %
26.01.2020 05:12 1,3 C 0,6 C 0,6 C 100 % 1018,1 hPa 0,0 l/m 0 min 0 min 0 W/m 6,4 km/h (2 Bft) 95,65 %
26.01.2020 05:14 1,3 C 0,6 C 0,6 C 100 % 1018,0 hPa 0,0 l/m 0 min 0 min 0 W/m 19,3 km/h (3 Bft) 97,87 %
26.01.2020 05:16 1,3 C 0,6 C 0,6 C 100 % 1018,0 hPa 0,0 l/m 0 min 0 min 0 W/m 19,3 km/h (3 Bft) 97,87 %
26.01.2020 05:18 1,3 C 0,6 C 0,6 C 100 % 1017,9 hPa 0,0 l/m 0 min 0 min 0 W/m 19,3 km/h (3 Bft) 95,83 %
26.01.2020 05:20 1,3 C 0,6 C 0,6 C 100 % 1017,9 hPa 0,0 l/m 0 min 0 min 0 W/m 12,9 km/h (3 Bft) 97,87 %
26.01.2020 05:22 1,4 C 0,6 C 0,6 C 100 % 1017,9 hPa 0,0 l/m 0 min 0 min 0 W/m 19,3 km/h (3 Bft) 95,74 %
26.01.2020 05:24 1,4 C 0,6 C 0,6 C 100 % 1017,8 hPa 0,0 l/m 0 min 0 min 0 W/m 12,9 km/h (3 Bft) 93,62 %
26.01.2020 05:26 1,4 C 0,6 C 0,6 C 100 % 1017,8 hPa 0,0 l/m 0 min 0 min 0 W/m 16,1 km/h (3 Bft) 95,74 %
26.01.2020 05:28 1,4 C 0,6 C 0,6 C 100 % 1017,8 hPa 0,0 l/m 0 min 0 min 0 W/m 6,4 km/h (2 Bft) 95,74 %
26.01.2020 05:30 1,4 C 0,6 C 0,6 C 100 % 1017,8 hPa 0,0 l/m 0 min 0 min 0 W/m 0,0 km/h (0 Bft) 93,48 %
26.01.2020 05:32 1,4 C 1,1 C 0,6 C 100 % 1017,8 hPa 0,0 l/m 0 min 0 min 0 W/m 3,2 km/h (1 Bft) 92,86 %
26.01.2020 05:34 1,4 C 1,1 C 0,6 C 100 % 1017,8 hPa 0,0 l/m 0 min 0 min 0 W/m 0,0 km/h (0 Bft) 91,67 %
26.01.2020 05:36 1,4 C 1,1 C 0,6 C 100 % 1017,8 hPa 0,0 l/m 0 min 0 min 0 W/m 6,4 km/h (2 Bft) 89,36 %
26.01.2020 05:38 1,4 C 1,1 C 0,6 C 100 % 1017,8 hPa 0,0 l/m 0 min 0 min 0 W/m 3,2 km/h (1 Bft) 91,67 %
26.01.2020 05:40 1,4 C 0,6 C 0,6 C 100 % 1017,9 hPa 0,0 l/m 0 min 0 min 0 W/m 12,9 km/h (3 Bft) 93,75 %
26.01.2020 05:42 1,4 C 0,6 C 0,6 C 100 % 1017,9 hPa 0,0 l/m 0 min 0 min 0 W/m 12,9 km/h (3 Bft) 89,58 %
26.01.2020 05:44 1,4 C 0,6 C 0,6 C 100 % 1017,9 hPa 0,0 l/m 0 min 0 min 0 W/m 16,1 km/h (3 Bft) 93,62 %
26.01.2020 05:46 1,4 C 0,6 C 0,6 C 100 % 1017,8 hPa 0,0 l/m 0 min 0 min 0 W/m 12,9 km/h (3 Bft) 91,49 %
26.01.2020 05:48 1,4 C 0,6 C 0,6 C 100 % 1017,9 hPa 0,0 l/m 0 min 0 min 0 W/m 12,9 km/h (3 Bft) 91,49 %
26.01.2020 05:50 1,4 C 0,6 C 0,6 C 100 % 1017,9 hPa 0,0 l/m 0 min 0 min 0 W/m 6,4 km/h (2 Bft) 61,70 %
26.01.2020 05:52 1,4 C 0,6 C 0,6 C 100 % 1017,9 hPa 0,0 l/m 0 min 0 min 0 W/m 16,1 km/h (3 Bft) 76,74 %
26.01.2020 05:54 1,4 C 0,6 C 0,6 C 100 % 1017,9 hPa 0,0 l/m 0 min 0 min 0 W/m 6,4 km/h (2 Bft) 89,13 %
26.01.2020 05:56 1,4 C 0,6 C 0,6 C 100 % 1017,7 hPa 0,0 l/m 0 min 0 min 0 W/m 12,9 km/h (3 Bft) 88,10 %
26.01.2020 05:58 1,4 C 0,6 C 0,6 C 100 % 1017,7 hPa 0,0 l/m 0 min 0 min 0 W/m 16,1 km/h (3 Bft) 93,62 %
26.01.2020 06:00 1,4 C 0,6 C 0,6 C 100 % 1017,7 hPa 0,0 l/m 0 min 0 min 0 W/m 19,3 km/h (3 Bft) 91,67 %
26.01.2020 06:02 1,4 C 0,6 C 0,6 C 100 % 1017,6 hPa 0,0 l/m 0 min 0 min 0 W/m 16,1 km/h (3 Bft) 90,00 %
26.01.2020 06:04 1,4 C 0,6 C 0,6 C 100 % 1017,7 hPa 0,0 l/m 0 min 0 min 0 W/m 12,9 km/h (3 Bft) 91,67 %
26.01.2020 06:06 1,4 C 0,6 C 0,6 C 100 % 1017,7 hPa 0,0 l/m 0 min 0 min 0 W/m 6,4 km/h (2 Bft) 93,48 %
26.01.2020 06:08 1,4 C 0,6 C 0,6 C 100 % 1017,8 hPa 0,0 l/m 0 min 0 min 0 W/m 6,4 km/h (2 Bft) 91,49 %
26.01.2020 06:10 1,4 C 0,6 C 0,6 C 100 % 1017,8 hPa 0,0 l/m 0 min 0 min 0 W/m 19,3 km/h (3 Bft) 89,36 %
26.01.2020 06:12 1,4 C 0,6 C 0,6 C 100 % 1017,8 hPa 0,0 l/m 0 min 0 min 0 W/m 12,9 km/h (3 Bft) 90,24 %
26.01.2020 06:14 1,4 C 0,6 C 0,6 C 100 % 1017,7 hPa 0,0 l/m 0 min 0 min 0 W/m 19,3 km/h (3 Bft) 91,67 %
26.01.2020 06:16 1,4 C 0,6 C 0,6 C 100 % 1017,7 hPa 0,0 l/m 0 min 0 min 0 W/m 16,1 km/h (3 Bft) 97,92 %
26.01.2020 06:18 1,4 C 0,6 C 0,6 C 100 % 1017,7 hPa 0,0 l/m 0 min 0 min 0 W/m 16,1 km/h (3 Bft) 93,75 %
26.01.2020 06:20 1,4 C 0,6 C 0,6 C 100 % 1017,8 hPa 0,0 l/m 0 min 0 min 0 W/m 16,1 km/h (3 Bft) 95,83 %
26.01.2020 06:22 1,4 C 0,6 C 0,6 C 100 % 1017,8 hPa 0,0 l/m 0 min 0 min 0 W/m 6,4 km/h (2 Bft) 100,00 %
26.01.2020 06:24 1,4 C 1,1 C 0,6 C 100 % 1017,8 hPa 0,0 l/m 0 min 0 min 0 W/m 6,4 km/h (2 Bft) 100,00 %
26.01.2020 06:26 1,4 C 1,1 C 0,6 C 100 % 1017,9 hPa 0,0 l/m 0 min 0 min 0 W/m 3,2 km/h (1 Bft) 97,87 %
26.01.2020 06:28 1,4 C 1,1 C 0,6 C 100 % 1017,8 hPa 0,0 l/m 0 min 0 min 0 W/m 12,9 km/h (3 Bft) 97,87 %
26.01.2020 06:30 1,4 C 1,1 C 0,6 C 100 % 1017,9 hPa 0,0 l/m 0 min 0 min 0 W/m 6,4 km/h (2 Bft) 97,83 %
26.01.2020 06:32 1,4 C 1,1 C 0,6 C 100 % 1017,9 hPa 0,0 l/m 0 min 0 min 0 W/m 16,1 km/h (3 Bft) 100,00 %
26.01.2020 06:34 1,4 C 0,6 C 0,6 C 100 % 1017,8 hPa 0,0 l/m 0 min 0 min 0 W/m 22,5 km/h (4 Bft) 97,87 %
26.01.2020 06:36 1,4 C 0,6 C 0,6 C 100 % 1017,8 hPa 0,0 l/m 0 min 0 min 0 W/m 16,1 km/h (3 Bft) 100,00 %
26.01.2020 06:38 1,4 C 0,6 C 0,6 C 100 % 1017,8 hPa 0,0 l/m 0 min 0 min 0 W/m 19,3 km/h (3 Bft) 97,56 %
26.01.2020 06:40 1,3 C 0,6 C 0,6 C 100 % 1017,8 hPa 0,0 l/m 0 min 0 min 0 W/m 12,9 km/h (3 Bft) 97,92 %
26.01.2020 06:42 1,3 C 0,6 C 0,6 C 100 % 1017,8 hPa 0,0 l/m 0 min 0 min 0 W/m 12,9 km/h (3 Bft) 97,92 %
26.01.2020 06:44 1,3 C 0,6 C 0,6 C 100 % 1017,8 hPa 0,0 l/m 0 min 0 min 0 W/m 6,4 km/h (2 Bft) 55,56 %
26.01.2020 06:46 1,3 C 0,6 C 0,6 C 100 % 1017,8 hPa 0,0 l/m 0 min 0 min 0 W/m 12,9 km/h (3 Bft) 100,00 %
26.01.2020 06:48 1,3 C 0,6 C 0,6 C 100 % 1017,8 hPa 0,0 l/m 0 min 0 min 0 W/m 12,9 km/h (3 Bft) 95,83 %
26.01.2020 06:50 1,3 C 0,6 C 0,6 C 100 % 1017,7 hPa 0,0 l/m 0 min 0 min 0 W/m 6,4 km/h (2 Bft) 100,00 %
26.01.2020 06:52 1,3 C 0,6 C 0,6 C 100 % 1017,8 hPa 0,0 l/m 0 min 0 min 0 W/m 12,9 km/h (3 Bft) 93,48 %
26.01.2020 06:54 1,3 C 0,6 C 0,6 C 100 % 1017,8 hPa 0,0 l/m 0 min 0 min 0 W/m 6,4 km/h (2 Bft) 97,87 %
26.01.2020 06:56 1,3 C 0,6 C 0,6 C 100 % 1017,8 hPa 0,0 l/m 0 min 0 min 0 W/m 19,3 km/h (3 Bft) 97,87 %
26.01.2020 06:58 1,3 C 0,6 C 0,6 C 100 % 1017,8 hPa 0,0 l/m 0 min 0 min 0 W/m 12,9 km/h (3 Bft) 100,00 %
26.01.2020 07:00 1,3 C 0,6 C 0,6 C 100 % 1017,8 hPa 0,0 l/m 0 min 0 min 0 W/m 12,9 km/h (3 Bft) 95,83 %
26.01.2020 07:02 1,3 C 0,6 C 0,6 C 100 % 1017,8 hPa 0,0 l/m 0 min 0 min 0 W/m 12,9 km/h (3 Bft) 94,00 %
26.01.2020 07:04 1,3 C 0,6 C 0,6 C 100 % 1017,7 hPa 0,0 l/m 0 min 0 min 0 W/m 16,1 km/h (3 Bft) 97,92 %
26.01.2020 07:06 1,3 C 0,6 C 0,6 C 100 % 1017,8 hPa 0,0 l/m 0 min 0 min 0 W/m 6,4 km/h (2 Bft) 100,00 %
26.01.2020 07:08 1,3 C 0,6 C 0,6 C 100 % 1017,8 hPa 0,0 l/m 0 min 0 min 0 W/m 6,4 km/h (2 Bft) 97,87 %
26.01.2020 07:10 1,3 C 0,6 C 0,6 C 100 % 1017,7 hPa 0,0 l/m 0 min 0 min 0 W/m 16,1 km/h (3 Bft) 100,00 %
26.01.2020 07:12 1,3 C 0,6 C 0,6 C 100 % 1017,7 hPa 0,0 l/m 0 min 0 min 0 W/m 19,3 km/h (3 Bft) 97,87 %
26.01.2020 07:14 1,3 C 0,6 C 0,6 C 100 % 1017,7 hPa 0,0 l/m 0 min 0 min 0 W/m 12,9 km/h (3 Bft) 100,00 %
26.01.2020 07:16 1,3 C 0,6 C 0,6 C 100 % 1017,6 hPa 0,0 l/m 0 min 0 min 0 W/m 12,9 km/h (3 Bft) 100,00 %
26.01.2020 07:18 1,3 C 0,6 C 0,6 C 100 % 1017,6 hPa 0,0 l/m 0 min 0 min 0 W/m 6,4 km/h (2 Bft) 100,00 %
26.01.2020 07:20 1,3 C 0,6 C 0,6 C 100 % 1017,6 hPa 0,0 l/m 0 min 0 min 0 W/m 12,9 km/h (3 Bft) 100,00 %
26.01.2020 07:22 1,3 C 0,6 C 0,6 C 100 % 1017,7 hPa 0,0 l/m 0 min 0 min 0 W/m 6,4 km/h (2 Bft) 95,83 %
26.01.2020 07:24 1,3 C 0,6 C 0,6 C 100 % 1017,7 hPa 0,0 l/m 0 min 0 min 0 W/m 6,4 km/h (2 Bft) 100,00 %
26.01.2020 07:26 1,3 C 0,6 C 0,6 C 100 % 1017,6 hPa 0,0 l/m 0 min 0 min 0 W/m 6,4 km/h (2 Bft) 100,00 %
26.01.2020 07:28 1,3 C 0,6 C 0,6 C 100 % 1017,7 hPa 0,0 l/m 0 min 0 min 0 W/m 6,4 km/h (2 Bft) 97,83 %
26.01.2020 07:30 1,3 C 0,6 C 0,6 C 100 % 1017,7 hPa 0,0 l/m 0 min 0 min 0 W/m 16,1 km/h (3 Bft) 97,87 %
26.01.2020 07:32 1,3 C 0,6 C 0,6 C 100 % 1017,7 hPa 0,0 l/m 0 min 0 min 0 W/m 16,1 km/h (3 Bft) 100,00 %
26.01.2020 07:34 1,3 C 0,6 C 0,6 C 100 % 1017,7 hPa 0,0 l/m 0 min 0 min 0 W/m 12,9 km/h (3 Bft) 97,87 %
26.01.2020 07:36 1,3 C 0,6 C 0,6 C 100 % 1017,7 hPa 0,0 l/m 0 min 0 min 0 W/m 6,4 km/h (2 Bft) 100,00 %
26.01.2020 07:38 1,3 C 0,6 C 0,6 C 100 % 1017,6 hPa 0,0 l/m 0 min 0 min 0 W/m 6,4 km/h (2 Bft) 100,00 %
26.01.2020 07:40 1,3 C 0,6 C 0,6 C 100 % 1017,6 hPa 0,0 l/m 0 min 0 min 0 W/m 12,9 km/h (3 Bft) 97,92 %
26.01.2020 07:42 1,3 C 0,6 C 0,6 C 100 % 1017,6 hPa 0,0 l/m 0 min 0 min 0 W/m 16,1 km/h (3 Bft) 97,92 %
26.01.2020 07:44 1,3 C 0,6 C 0,6 C 100 % 1017,5 hPa 0,0 l/m 0 min 0 min 0 W/m 12,9 km/h (3 Bft) 91,49 %
26.01.2020 07:46 1,3 C 0,6 C 0,6 C 100 % 1017,5 hPa 0,0 l/m 0 min 0 min 0 W/m 19,3 km/h (3 Bft) 100,00 %
26.01.2020 07:48 1,3 C 0,6 C 0,6 C 100 % 1017,5 hPa 0,0 l/m 0 min 0 min 0 W/m 25,7 km/h (4 Bft) 95,83 %
26.01.2020 07:50 1,3 C 0,6 C 0,6 C 100 % 1017,4 hPa 0,0 l/m 0 min 0 min 0 W/m 12,9 km/h (3 Bft) 97,83 %
26.01.2020 07:52 1,3 C 0,6 C 0,0 C 100 % 1017,4 hPa 0,0 l/m 0 min 0 min 0 W/m 12,9 km/h (3 Bft) 95,74 %
26.01.2020 07:54 1,3 C 0,6 C 0,0 C 100 % 1017,5 hPa 0,0 l/m 0 min 0 min 0 W/m 16,1 km/h (3 Bft) 100,00 %
26.01.2020 07:56 1,3 C 0,6 C 0,0 C 100 % 1017,5 hPa 0,0 l/m 0 min 0 min 0 W/m 12,9 km/h (3 Bft) 95,74 %
26.01.2020 07:58 1,3 C 0,6 C 0,0 C 100 % 1017,5 hPa 0,0 l/m 0 min 0 min 0 W/m 6,4 km/h (2 Bft) 100,00 %
26.01.2020 08:00 1,3 C 0,6 C 0,0 C 100 % 1017,5 hPa 0,0 l/m 0 min 0 min 0 W/m 12,9 km/h (3 Bft) 97,92 %
26.01.2020 08:02 1,3 C 0,6 C 0,0 C 100 % 1017,5 hPa 0,0 l/m 0 min 0 min 0 W/m 3,2 km/h (1 Bft) 95,74 %
26.01.2020 08:04 1,3 C 0,6 C 0,0 C 100 % 1017,4 hPa 0,0 l/m 0 min 0 min 0 W/m 22,5 km/h (4 Bft) 100,00 %
26.01.2020 08:06 1,3 C 0,6 C 0,0 C 100 % 1017,4 hPa 0,0 l/m 0 min 0 min 0 W/m 12,9 km/h (3 Bft) 93,75 %
26.01.2020 08:08 1,2 C 0,6 C 0,0 C 100 % 1017,3 hPa 0,0 l/m 0 min 0 min 0 W/m 6,4 km/h (2 Bft) 93,62 %
26.01.2020 08:10 1,2 C 0,6 C 0,0 C 100 % 1017,4 hPa 0,0 l/m 0 min 0 min 0 W/m 12,9 km/h (3 Bft) 93,62 %
26.01.2020 08:12 1,2 C 0,6 C 0,0 C 100 % 1017,4 hPa 0,0 l/m 0 min 0 min 0 W/m 6,4 km/h (2 Bft) 91,67 %
26.01.2020 08:14 1,2 C 0,6 C 0,0 C 100 % 1017,4 hPa 0,0 l/m 0 min 0 min 0 W/m 22,5 km/h (4 Bft) 95,83 %
26.01.2020 08:16 1,2 C 0,6 C 0,0 C 100 % 1017,4 hPa 0,0 l/m 0 min 0 min 0 W/m 6,4 km/h (2 Bft) 95,74 %
26.01.2020 08:18 1,2 C 0,6 C 0,0 C 100 % 1017,4 hPa 0,0 l/m 0 min 0 min 0 W/m 16,1 km/h (3 Bft) 95,65 %
26.01.2020 08:20 1,2 C 0,6 C 0,0 C 100 % 1017,5 hPa 0,0 l/m 0 min 0 min 0 W/m 3,2 km/h (1 Bft) 95,74 %
26.01.2020 08:22 1,2 C 0,6 C 0,0 C 100 % 1017,5 hPa 0,0 l/m 0 min 0 min 0 W/m 6,4 km/h (2 Bft) 91,49 %
26.01.2020 08:24 1,2 C 0,6 C 0,0 C 100 % 1017,5 hPa 0,0 l/m 0 min 0 min 0 W/m 3,2 km/h (1 Bft) 93,75 %
26.01.2020 08:26 1,2 C 0,6 C 0,0 C 100 % 1017,5 hPa 0,0 l/m 0 min 0 min 1 W/m 12,9 km/h (3 Bft) 91,49 %
26.01.2020 08:28 1,2 C 0,6 C 0,0 C 100 % 1017,5 hPa 0,0 l/m 0 min 0 min 5 W/m 3,2 km/h (1 Bft) 57,45 %
26.01.2020 08:30 1,2 C 0,6 C 0,6 C 100 % 1017,5 hPa 0,0 l/m 0 min 0 min 5 W/m 12,9 km/h (3 Bft) 93,62 %
26.01.2020 08:32 1,2 C 0,6 C 0,6 C 100 % 1017,5 hPa 0,0 l/m 0 min 0 min 5 W/m 16,1 km/h (3 Bft) 97,87 %
26.01.2020 08:34 1,2 C 0,6 C 0,6 C 100 % 1017,5 hPa 0,0 l/m 0 min 0 min 6 W/m 19,3 km/h (3 Bft) 95,74 %
26.01.2020 08:36 1,2 C 1,1 C 0,6 C 100 % 1017,5 hPa 0,0 l/m 0 min 0 min 7 W/m 12,9 km/h (3 Bft) 97,83 %
26.01.2020 08:38 1,2 C 1,1 C 0,6 C 100 % 1017,5 hPa 0,0 l/m 0 min 0 min 7 W/m 6,4 km/h (2 Bft) 93,62 %
26.01.2020 08:40 1,2 C 1,1 C 0,6 C 100 % 1017,5 hPa 0,0 l/m 0 min 0 min 9 W/m 12,9 km/h (3 Bft) 95,74 %
26.01.2020 08:42 1,2 C 1,1 C 0,6 C 100 % 1017,5 hPa 0,0 l/m 0 min 0 min 9 W/m 16,1 km/h (3 Bft) 95,74 %
26.01.2020 08:44 1,2 C 1,1 C 0,6 C 100 % 1017,5 hPa 0,0 l/m 0 min 0 min 10 W/m 19,3 km/h (3 Bft) 93,62 %
26.01.2020 08:46 1,2 C 1,1 C 0,6 C 100 % 1017,5 hPa 0,0 l/m 0 min 0 min 11 W/m 12,9 km/h (3 Bft) 93,62 %
26.01.2020 08:48 1,3 C 1,1 C 0,6 C 100 % 1017,5 hPa 0,0 l/m 0 min 0 min 12 W/m 12,9 km/h (3 Bft) 92,68 %
26.01.2020 08:50 1,3 C 1,1 C 0,6 C 100 % 1017,5 hPa 0,0 l/m 0 min 0 min 14 W/m 12,9 km/h (3 Bft) 93,75 %
26.01.2020 08:52 1,3 C 1,1 C 0,6 C 100 % 1017,5 hPa 0,0 l/m 0 min 0 min 15 W/m 16,1 km/h (3 Bft) 95,83 %
26.01.2020 08:54 1,3 C 1,1 C 0,6 C 100 % 1017,5 hPa 0,0 l/m 0 min 0 min 16 W/m 16,1 km/h (3 Bft) 97,87 %
26.01.2020 08:56 1,3 C 1,1 C 0,6 C 100 % 1017,4 hPa 0,0 l/m 0 min 0 min 18 W/m 6,4 km/h (2 Bft) 97,87 %
26.01.2020 08:58 1,3 C 1,1 C 0,6 C 100 % 1017,4 hPa 0,0 l/m 0 min 0 min 20 W/m 12,9 km/h (3 Bft) 98,00 %
26.01.2020 09:00 1,3 C 1,1 C 0,6 C 100 % 1017,4 hPa 0,0 l/m 0 min 0 min 22 W/m 16,1 km/h (3 Bft) 95,65 %
26.01.2020 09:02 1,3 C 1,1 C 0,6 C 100 % 1017,4 hPa 0,0 l/m 0 min 0 min 23 W/m 19,3 km/h (3 Bft) 95,74 %
26.01.2020 09:04 1,4 C 1,1 C 1,1 C 100 % 1017,5 hPa 0,0 l/m 0 min 0 min 25 W/m 6,4 km/h (2 Bft) 97,87 %
26.01.2020 09:06 1,4 C 1,1 C 1,1 C 100 % 1017,5 hPa 0,0 l/m 0 min 0 min 26 W/m 12,9 km/h (3 Bft) 97,87 %
26.01.2020 09:08 1,4 C 1,7 C 1,1 C 100 % 1017,5 hPa 0,0 l/m 0 min 0 min 29 W/m 6,4 km/h (2 Bft) 97,87 %
26.01.2020 09:10 1,4 C 1,7 C 1,1 C 100 % 1017,5 hPa 0,0 l/m 0 min 0 min 32 W/m 16,1 km/h (3 Bft) 97,87 %
26.01.2020 09:12 1,4 C 1,7 C 1,1 C 100 % 1017,5 hPa 0,0 l/m 0 min 0 min 33 W/m 12,9 km/h (3 Bft) 97,83 %
26.01.2020 09:14 1,5 C 1,7 C 1,1 C 100 % 1017,5 hPa 0,0 l/m 0 min 0 min 35 W/m 12,9 km/h (3 Bft) 97,87 %
26.01.2020 09:16 1,5 C 1,7 C 1,1 C 100 % 1017,5 hPa 0,0 l/m 0 min 0 min 38 W/m 22,5 km/h (4 Bft) 95,74 %
26.01.2020 09:18 1,6 C 1,7 C 1,1 C 100 % 1017,5 hPa 0,0 l/m 0 min 0 min 39 W/m 6,4 km/h (2 Bft) 97,87 %
26.01.2020 09:20 1,6 C 1,7 C 1,1 C 100 % 1017,5 hPa 0,0 l/m 0 min 0 min 41 W/m 19,3 km/h (3 Bft) 97,56 %
26.01.2020 09:22 1,6 C 1,7 C 1,1 C 100 % 1017,5 hPa 0,0 l/m 0 min 0 min 42 W/m 16,1 km/h (3 Bft) 97,92 %
26.01.2020 09:24 1,6 C 1,7 C 1,1 C 100 % 1017,4 hPa 0,0 l/m 0 min 0 min 43 W/m 19,3 km/h (3 Bft) 97,92 %
26.01.2020 09:26 1,6 C 1,7 C 1,1 C 100 % 1017,4 hPa 0,0 l/m 0 min 0 min 45 W/m 16,1 km/h (3 Bft) 97,92 %
26.01.2020 09:28 1,7 C 1,7 C 1,1 C 100 % 1017,5 hPa 0,0 l/m 0 min 0 min 49 W/m 19,3 km/h (3 Bft) 97,87 %
26.01.2020 09:30 1,7 C 2,2 C 1,7 C 100 % 1017,4 hPa 0,0 l/m 0 min 0 min 63 W/m 16,1 km/h (3 Bft) 97,92 %
26.01.2020 09:32 1,7 C 2,2 C 1,7 C 100 % 1017,4 hPa 0,0 l/m 0 min 0 min 49 W/m 19,3 km/h (3 Bft) 97,92 %
26.01.2020 09:34 1,8 C 2,2 C 1,7 C 100 % 1017,4 hPa 0,0 l/m 0 min 0 min 47 W/m 22,5 km/h (4 Bft) 97,83 %
26.01.2020 09:36 1,8 C 2,2 C 1,7 C 100 % 1017,4 hPa 0,0 l/m 0 min 0 min 48 W/m 16,1 km/h (3 Bft) 97,87 %
26.01.2020 09:38 1,8 C 2,2 C 1,7 C 100 % 1017,4 hPa 0,0 l/m 0 min 0 min 51 W/m 12,9 km/h (3 Bft) 97,87 %
26.01.2020 09:40 1,8 C 2,2 C 1,7 C 100 % 1017,4 hPa 0,0 l/m 0 min 0 min 53 W/m 16,1 km/h (3 Bft) 97,87 %
26.01.2020 09:42 1,9 C 2,2 C 1,7 C 100 % 1017,4 hPa 0,0 l/m 0 min 0 min 53 W/m 22,5 km/h (4 Bft) 97,87 %
26.01.2020 09:44 1,9 C 2,2 C 1,7 C 100 % 1017,4 hPa 0,0 l/m 0 min 0 min 53 W/m 19,3 km/h (3 Bft) 100,00 %
26.01.2020 09:46 1,9 C 2,2 C 1,7 C 100 % 1017,4 hPa 0,0 l/m 0 min 0 min 54 W/m 16,1 km/h (3 Bft) 100,00 %
26.01.2020 09:48 2,0 C 2,2 C 1,7 C 100 % 1017,4 hPa 0,0 l/m 0 min 0 min 55 W/m 19,3 km/h (3 Bft) 100,00 %
26.01.2020 09:50 2,0 C 2,2 C 1,7 C 100 % 1017,4 hPa 0,0 l/m 0 min 0 min 56 W/m 19,3 km/h (3 Bft) 100,00 %
26.01.2020 09:52 2,0 C 2,2 C 1,7 C 100 % 1017,4 hPa 0,0 l/m 0 min 0 min 58 W/m 19,3 km/h (3 Bft) 100,00 %
26.01.2020 09:54 2,1 C 2,2 C 1,7 C 100 % 1017,4 hPa 0,0 l/m 0 min 0 min 59 W/m 25,7 km/h (4 Bft) 97,92 %
26.01.2020 09:56 2,1 C 2,2 C 1,7 C 100 % 1017,5 hPa 0,0 l/m 0 min 0 min 60 W/m 22,5 km/h (4 Bft) 100,00 %
26.01.2020 09:58 2,1 C 2,2 C 1,7 C 100 % 1017,5 hPa 0,0 l/m 0 min 0 min 60 W/m 22,5 km/h (4 Bft) 100,00 %
26.01.2020 10:00 2,1 C 2,2 C 1,7 C 100 % 1017,4 hPa 0,0 l/m 0 min 0 min 59 W/m 16,1 km/h (3 Bft) 100,00 %
26.01.2020 10:02 2,1 C 2,2 C 1,7 C 100 % 1017,4 hPa 0,0 l/m 0 min 0 min 58 W/m 19,3 km/h (3 Bft) 100,00 %
26.01.2020 10:04 2,1 C 2,2 C 1,7 C 100 % 1017,6 hPa 0,0 l/m 0 min 0 min 58 W/m 22,5 km/h (4 Bft) 100,00 %
26.01.2020 10:06 2,2 C 2,2 C 1,7 C 100 % 1017,5 hPa 0,0 l/m 0 min 0 min 58 W/m 12,9 km/h (3 Bft) 100,00 %
26.01.2020 10:08 2,2 C 2,8 C 2,2 C 100 % 1017,5 hPa 0,0 l/m 0 min 0 min 57 W/m 3,2 km/h (1 Bft) 97,92 %
26.01.2020 10:10 2,2 C 2,8 C 2,2 C 100 % 1017,5 hPa 0,0 l/m 0 min 0 min 56 W/m 12,9 km/h (3 Bft) 100,00 %
26.01.2020 10:12 2,2 C 2,8 C 2,2 C 100 % 1017,5 hPa 0,0 l/m 0 min 0 min 59 W/m 16,1 km/h (3 Bft) 100,00 %
26.01.2020 10:14 2,2 C 2,8 C 2,2 C 100 % 1017,5 hPa 0,0 l/m 0 min 0 min 65 W/m 12,9 km/h (3 Bft) 100,00 %
26.01.2020 10:16 2,2 C 2,8 C 2,2 C 100 % 1017,5 hPa 0,0 l/m 0 min 0 min 73 W/m 16,1 km/h (3 Bft) 97,87 %
26.01.2020 10:18 2,3 C 2,8 C 2,2 C 100 % 1017,5 hPa 0,0 l/m 0 min 0 min 84 W/m 16,1 km/h (3 Bft) 100,00 %
26.01.2020 10:20 2,3 C 2,8 C 2,2 C 100 % 1017,5 hPa 0,0 l/m 0 min 0 min 95 W/m 19,3 km/h (3 Bft) 100,00 %
26.01.2020 10:22 2,3 C 3,3 C 2,2 C 100 % 1017,6 hPa 0,0 l/m 0 min 0 min 111 W/m 12,9 km/h (3 Bft) 97,87 %
26.01.2020 10:24 2,4 C 3,3 C 2,8 C 100 % 1017,6 hPa 0,0 l/m 0 min 0 min 120 W/m 16,1 km/h (3 Bft) 100,00 %
26.01.2020 10:26 2,4 C 3,3 C 2,8 C 100 % 1017,5 hPa 0,0 l/m 0 min 0 min 118 W/m 22,5 km/h (4 Bft) 100,00 %
26.01.2020 10:28 2,4 C 3,3 C 2,8 C 100 % 1017,5 hPa 0,0 l/m 0 min 0 min 113 W/m 19,3 km/h (3 Bft) 100,00 %
26.01.2020 10:30 2,5 C 3,3 C 2,8 C 100 % 1017,5 hPa 0,0 l/m 0 min 0 min 112 W/m 22,5 km/h (4 Bft) 100,00 %
26.01.2020 10:32 2,5 C 3,3 C 2,8 C 100 % 1017,5 hPa 0,0 l/m 0 min 0 min 107 W/m 19,3 km/h (3 Bft) 97,83 %
26.01.2020 10:34 2,6 C 3,3 C 2,8 C 100 % 1017,5 hPa 0,0 l/m 0 min 0 min 91 W/m 12,9 km/h (3 Bft) 97,87 %
26.01.2020 10:36 2,6 C 3,3 C 2,8 C 100 % 1017,5 hPa 0,0 l/m 0 min 0 min 76 W/m 19,3 km/h (3 Bft) 97,87 %
26.01.2020 10:38 2,6 C 3,3 C 2,2 C 100 % 1017,5 hPa 0,0 l/m 0 min 0 min 75 W/m 22,5 km/h (4 Bft) 97,87 %
26.01.2020 10:40 2,6 C 3,3 C 2,2 C 100 % 1017,5 hPa 0,0 l/m 0 min 0 min 76 W/m 22,5 km/h (4 Bft) 97,87 %
26.01.2020 10:42 2,7 C 3,3 C 2,2 C 100 % 1017,5 hPa 0,0 l/m 0 min 0 min 74 W/m 19,3 km/h (3 Bft) 93,62 %
26.01.2020 10:44 2,7 C 3,3 C 2,2 C 100 % 1017,5 hPa 0,0 l/m 0 min 0 min 72 W/m 19,3 km/h (3 Bft) 95,65 %
26.01.2020 10:46 2,7 C 3,3 C 2,2 C 100 % 1017,5 hPa 0,0 l/m 0 min 0 min 86 W/m 19,3 km/h (3 Bft) 95,74 %
26.01.2020 10:48 2,7 C 3,9 C 2,8 C 100 % 1017,5 hPa 0,0 l/m 0 min 0 min 114 W/m 16,1 km/h (3 Bft) 95,74 %
26.01.2020 10:50 2,7 C 3,9 C 2,8 C 100 % 1017,5 hPa 0,0 l/m 2 min 0 min 160 W/m 19,3 km/h (3 Bft) 95,74 %
26.01.2020 10:52 2,8 C 4,4 C 2,8 C 100 % 1017,5 hPa 0,0 l/m 2 min 0 min 192 W/m 16,1 km/h (3 Bft) 97,87 %
26.01.2020 10:54 2,8 C 5,6 C 3,3 C 100 % 1017,5 hPa 0,0 l/m 2 min 0 min 261 W/m 19,3 km/h (3 Bft) 95,12 %
26.01.2020 10:56 2,9 C 6,1 C 3,3 C 100 % 1017,4 hPa 0,0 l/m 2 min 0 min 243 W/m 19,3 km/h (3 Bft) 95,74 %
26.01.2020 10:58 3,0 C 6,1 C 3,3 C 100 % 1017,4 hPa 0,0 l/m 2 min 0 min 200 W/m 19,3 km/h (3 Bft) 95,74 %
26.01.2020 11:00 3,1 C 5,6 C 3,3 C 100 % 1017,4 hPa 0,0 l/m 2 min 0 min 198 W/m 22,5 km/h (4 Bft) 97,92 %
26.01.2020 11:02 3,2 C 5,0 C 3,3 C 100 % 1017,5 hPa 0,0 l/m 0 min 0 min 146 W/m 19,3 km/h (3 Bft) 97,83 %
26.01.2020 11:04 3,3 C 5,0 C 3,3 C 100 % 1017,4 hPa 0,0 l/m 0 min 0 min 125 W/m 16,1 km/h (3 Bft) 92,00 %
26.01.2020 11:06 3,3 C 5,0 C 3,3 C 100 % 1017,4 hPa 0,0 l/m 0 min 0 min 130 W/m 12,9 km/h (3 Bft) 95,83 %
26.01.2020 11:08 3,4 C 5,0 C 3,9 C 100 % 1017,4 hPa 0,0 l/m 0 min 0 min 151 W/m 16,1 km/h (3 Bft) 93,62 %
26.01.2020 11:10 3,4 C 5,0 C 3,9 C 100 % 1017,4 hPa 0,0 l/m 0 min 0 min 160 W/m 19,3 km/h (3 Bft) 97,87 %
26.01.2020 11:12 3,5 C 5,0 C 3,9 C 100 % 1017,4 hPa 0,0 l/m 0 min 0 min 135 W/m 16,1 km/h (3 Bft) 97,87 %
26.01.2020 11:14 3,6 C 5,6 C 3,9 C 100 % 1017,4 hPa 0,0 l/m 0 min 0 min 141 W/m 19,3 km/h (3 Bft) 95,74 %
26.01.2020 11:16 3,6 C 5,0 C 3,9 C 100 % 1017,4 hPa 0,0 l/m 0 min 0 min 127 W/m 16,1 km/h (3 Bft) 93,62 %
26.01.2020 11:18 3,7 C 5,0 C 3,9 C 100 % 1017,4 hPa 0,0 l/m 0 min 0 min 104 W/m 22,5 km/h (4 Bft) 95,65 %
26.01.2020 11:20 3,7 C 5,6 C 3,9 C 100 % 1017,3 hPa 0,0 l/m 2 min 0 min 182 W/m 16,1 km/h (3 Bft) 100,00 %
26.01.2020 11:22 3,7 C 5,0 C 3,9 C 100 % 1017,4 hPa 0,0 l/m 0 min 0 min 116 W/m 16,1 km/h (3 Bft) 100,00 %
26.01.2020 11:24 3,8 C 5,6 C 3,9 C 100 % 1017,3 hPa 0,0 l/m 2 min 0 min 223 W/m 16,1 km/h (3 Bft) 97,62 %
26.01.2020 11:26 3,8 C 6,1 C 3,9 C 100 % 1017,3 hPa 0,0 l/m 2 min 0 min 210 W/m 16,1 km/h (3 Bft) 93,62 %
26.01.2020 11:28 3,9 C 6,7 C 4,4 C 100 % 1017,4 hPa 0,0 l/m 2 min 0 min 228 W/m 16,1 km/h (3 Bft) 97,92 %
26.01.2020 11:30 4,0 C 6,7 C 4,4 C 100 % 1017,2 hPa 0,0 l/m 2 min 0 min 199 W/m 16,1 km/h (3 Bft) 97,92 %
26.01.2020 11:32 4,1 C 6,1 C 3,9 C 100 % 1017,2 hPa 0,0 l/m 0 min 0 min 123 W/m 25,7 km/h (4 Bft) 97,96 %
26.01.2020 11:34 4,1 C 5,6 C 3,9 C 100 % 1017,2 hPa 0,0 l/m 0 min 0 min 117 W/m 22,5 km/h (4 Bft) 97,87 %
26.01.2020 11:36 4,1 C 5,6 C 3,9 C 100 % 1017,2 hPa 0,0 l/m 0 min 0 min 140 W/m 22,5 km/h (4 Bft) 97,87 %
26.01.2020 11:38 4,2 C 6,1 C 3,9 C 100 % 1017,3 hPa 0,0 l/m 2 min 0 min 212 W/m 22,5 km/h (4 Bft) 93,62 %
26.01.2020 11:40 4,2 C 7,8 C 4,4 C 100 % 1017,3 hPa 0,0 l/m 2 min 0 min 304 W/m 25,7 km/h (4 Bft) 93,62 %
26.01.2020 11:42 4,3 C 7,8 C 4,4 C 100 % 1017,2 hPa 0,0 l/m 2 min 0 min 312 W/m 22,5 km/h (4 Bft) 95,65 %
26.01.2020 11:44 4,3 C 7,8 C 4,4 C 100 % 1017,2 hPa 0,0 l/m 2 min 0 min 309 W/m 19,3 km/h (3 Bft) 95,74 %
26.01.2020 11:46 4,4 C 8,3 C 4,4 C 100 % 1017,1 hPa 0,0 l/m 2 min 0 min 298 W/m 29,0 km/h (5 Bft) 95,74 %
26.01.2020 11:48 4,6 C 8,3 C 4,4 C 100 % 1017,1 hPa 0,0 l/m 2 min 0 min 291 W/m 25,7 km/h (4 Bft) 95,74 %
26.01.2020 11:50 4,7 C 8,3 C 4,4 C 100 % 1017,1 hPa 0,0 l/m 2 min 0 min 298 W/m 25,7 km/h (4 Bft) 95,74 %
26.01.2020 11:52 4,7 C 7,2 C 4,4 C 100 % 1017,1 hPa 0,0 l/m 2 min 0 min 234 W/m 22,5 km/h (4 Bft) 95,74 %
26.01.2020 11:54 4,7 C 6,7 C 4,4 C 100 % 1017,0 hPa 0,0 l/m 0 min 0 min 144 W/m 22,5 km/h (4 Bft) 95,65 %
26.01.2020 11:56 4,8 C 7,2 C 4,4 C 100 % 1017,1 hPa 0,0 l/m 2 min 0 min 222 W/m 19,3 km/h (3 Bft) 95,74 %
26.01.2020 11:58 4,8 C 7,8 C 5,0 C 100 % 1017,1 hPa 0,0 l/m 2 min 0 min 333 W/m 19,3 km/h (3 Bft) 95,74 %
26.01.2020 12:00 4,9 C 8,3 C 5,0 C 100 % 1017,0 hPa 0,0 l/m 2 min 0 min 378 W/m 29,0 km/h (5 Bft) 95,74 %
26.01.2020 12:02 5,0 C 8,9 C 5,0 C 100 % 1017,0 hPa 0,0 l/m 2 min 0 min 377 W/m 19,3 km/h (3 Bft) 95,74 %
26.01.2020 12:04 5,1 C 9,4 C 5,6 C 100 % 1017,1 hPa 0,0 l/m 2 min 0 min 356 W/m 29,0 km/h (5 Bft) 95,12 %
26.01.2020 12:06 5,2 C 8,9 C 5,0 C 100 % 1017,1 hPa 0,0 l/m 2 min 0 min 332 W/m 29,0 km/h (5 Bft) 95,83 %
26.01.2020 12:08 5,2 C 9,4 C 5,0 C 100 % 1017,0 hPa 0,0 l/m 2 min 0 min 316 W/m 22,5 km/h (4 Bft) 93,62 %
26.01.2020 12:10 5,3 C 9,4 C 5,6 C 100 % 1017,0 hPa 0,0 l/m 2 min 0 min 304 W/m 19,3 km/h (3 Bft) 93,75 %
26.01.2020 12:12 5,4 C 9,4 C 5,0 C 100 % 1016,9 hPa 0,0 l/m 2 min 0 min 299 W/m 19,3 km/h (3 Bft) 95,74 %
26.01.2020 12:14 5,5 C 9,4 C 5,0 C 100 % 1017,0 hPa 0,0 l/m 2 min 0 min 298 W/m 19,3 km/h (3 Bft) 97,92 %
26.01.2020 12:16 5,6 C 8,9 C 5,0 C 100 % 1017,0 hPa 0,0 l/m 2 min 0 min 302 W/m 29,0 km/h (5 Bft) 95,83 %
26.01.2020 12:18 5,7 C 8,9 C 5,0 C 100 % 1017,0 hPa 0,0 l/m 2 min 0 min 303 W/m 25,7 km/h (4 Bft) 97,87 %
26.01.2020 12:20 5,7 C 9,4 C 5,0 C 100 % 1017,0 hPa 0,0 l/m 2 min 0 min 306 W/m 22,5 km/h (4 Bft) 95,74 %
26.01.2020 12:22 5,8 C 8,9 C 5,0 C 100 % 1016,9 hPa 0,0 l/m 2 min 0 min 307 W/m 22,5 km/h (4 Bft) 93,62 %
26.01.2020 12:24 5,8 C 8,9 C 5,6 C 99 % 1016,9 hPa 0,0 l/m 2 min 0 min 308 W/m 22,5 km/h (4 Bft) 97,87 %
26.01.2020 12:26 5,9 C 8,9 C 5,6 C 99 % 1016,9 hPa 0,0 l/m 2 min 0 min 306 W/m 19,3 km/h (3 Bft) 97,87 %
26.01.2020 12:28 6,0 C 9,4 C 5,6 C 99 % 1016,8 hPa 0,0 l/m 2 min 0 min 308 W/m 22,5 km/h (4 Bft) 97,87 %
26.01.2020 12:30 6,1 C 9,4 C 5,6 C 99 % 1016,8 hPa 0,0 l/m 2 min 0 min 313 W/m 19,3 km/h (3 Bft) 97,56 %
26.01.2020 12:32 6,1 C 9,4 C 6,1 C 98 % 1016,7 hPa 0,0 l/m 2 min 0 min 312 W/m 16,1 km/h (3 Bft) 97,92 %
26.01.2020 12:34 6,2 C 10,0 C 6,7 C 98 % 1016,7 hPa 0,0 l/m 2 min 0 min 312 W/m 19,3 km/h (3 Bft) 95,74 %
26.01.2020 12:36 6,3 C 10,6 C 7,2 C 97 % 1016,7 hPa 0,0 l/m 2 min 0 min 309 W/m 12,9 km/h (3 Bft) 95,83 %
26.01.2020 12:38 6,3 C 10,6 C 8,3 C 97 % 1016,7 hPa 0,0 l/m 2 min 0 min 309 W/m 16,1 km/h (3 Bft) 95,83 %
26.01.2020 12:40 6,4 C 10,0 C 8,9 C 96 % 1016,6 hPa 0,0 l/m 2 min 0 min 307 W/m 19,3 km/h (3 Bft) 95,74 %
26.01.2020 12:42 6,5 C 10,0 C 8,9 C 96 % 1016,6 hPa 0,0 l/m 2 min 0 min 308 W/m 22,5 km/h (4 Bft) 93,75 %
26.01.2020 12:44 6,6 C 10,6 C 8,3 C 96 % 1016,5 hPa 0,0 l/m 2 min 0 min 312 W/m 16,1 km/h (3 Bft) 93,62 %
26.01.2020 12:46 6,7 C 10,6 C 7,2 C 95 % 1016,5 hPa 0,0 l/m 2 min 0 min 315 W/m 19,3 km/h (3 Bft) 93,62 %
26.01.2020 12:48 6,7 C 10,6 C 6,7 C 95 % 1016,5 hPa 0,0 l/m 2 min 0 min 316 W/m 19,3 km/h (3 Bft) 95,74 %
26.01.2020 12:50 6,8 C 11,1 C 6,7 C 94 % 1016,5 hPa 0,0 l/m 2 min 0 min 315 W/m 16,1 km/h (3 Bft) 95,74 %
26.01.2020 12:52 6,9 C 11,1 C 6,7 C 94 % 1016,5 hPa 0,0 l/m 2 min 0 min 312 W/m 16,1 km/h (3 Bft) 95,65 %
26.01.2020 12:54 7,0 C 11,1 C 6,7 C 94 % 1016,4 hPa 0,0 l/m 2 min 0 min 316 W/m 19,3 km/h (3 Bft) 95,74 %
26.01.2020 12:56 7,1 C 10,6 C 6,7 C 94 % 1016,5 hPa 0,0 l/m 2 min 0 min 317 W/m 19,3 km/h (3 Bft) 95,74 %
26.01.2020 12:58 7,2 C 10,6 C 6,7 C 93 % 1016,4 hPa 0,0 l/m 2 min 0 min 314 W/m 22,5 km/h (4 Bft) 95,74 %
26.01.2020 13:00 7,2 C 10,6 C 6,7 C 93 % 1016,4 hPa 0,0 l/m 2 min 0 min 319 W/m 22,5 km/h (4 Bft) 95,12 %
26.01.2020 13:02 7,3 C 11,1 C 6,7 C 92 % 1016,3 hPa 0,0 l/m 2 min 0 min 317 W/m 16,1 km/h (3 Bft) 95,92 %
26.01.2020 13:04 7,4 C 11,1 C 6,7 C 92 % 1016,3 hPa 0,0 l/m 2 min 0 min 320 W/m 19,3 km/h (3 Bft) 94,00 %
26.01.2020 13:06 7,4 C 11,1 C 6,7 C 92 % 1016,3 hPa 0,0 l/m 2 min 0 min 317 W/m 22,5 km/h (4 Bft) 97,87 %
26.01.2020 13:08 7,5 C 10,6 C 6,7 C 91 % 1016,3 hPa 0,0 l/m 2 min 0 min 317 W/m 22,5 km/h (4 Bft) 97,87 %
26.01.2020 13:10 7,6 C 11,1 C 6,7 C 91 % 1016,2 hPa 0,0 l/m 2 min 0 min 317 W/m 25,7 km/h (4 Bft) 95,74 %
26.01.2020 13:12 7,6 C 11,1 C 6,7 C 91 % 1016,2 hPa 0,0 l/m 2 min 0 min 319 W/m 22,5 km/h (4 Bft) 93,62 %
26.01.2020 13:14 7,7 C 11,1 C 6,7 C 90 % 1016,1 hPa 0,0 l/m 2 min 0 min 320 W/m 25,7 km/h (4 Bft) 97,87 %
26.01.2020 13:16 7,7 C 10,6 C 6,7 C 90 % 1016,2 hPa 0,0 l/m 2 min 0 min 319 W/m 25,7 km/h (4 Bft) 100,00 %
26.01.2020 13:18 7,8 C 11,1 C 7,2 C 90 % 1016,1 hPa 0,0 l/m 2 min 0 min 320 W/m 19,3 km/h (3 Bft) 100,00 %
26.01.2020 13:20 7,8 C 11,7 C 7,2 C 89 % 1016,1 hPa 0,0 l/m 2 min 0 min 316 W/m 16,1 km/h (3 Bft) 100,00 %
26.01.2020 13:22 7,9 C 11,7 C 7,2 C 89 % 1016,2 hPa 0,0 l/m 2 min 0 min 315 W/m 19,3 km/h (3 Bft) 100,00 %
26.01.2020 13:24 7,9 C 11,7 C 7,2 C 89 % 1016,1 hPa 0,0 l/m 2 min 0 min 314 W/m 19,3 km/h (3 Bft) 100,00 %
26.01.2020 13:26 8,0 C 11,7 C 7,2 C 89 % 1016,1 hPa 0,0 l/m 2 min 0 min 314 W/m 22,5 km/h (4 Bft) 100,00 %
26.01.2020 13:28 8,1 C 11,7 C 7,2 C 89 % 1016,1 hPa 0,0 l/m 2 min 0 min 312 W/m 19,3 km/h (3 Bft) 100,00 %
26.01.2020 13:30 8,1 C 11,7 C 7,2 C 89 % 1016,1 hPa 0,0 l/m 2 min 0 min 311 W/m 16,1 km/h (3 Bft) 100,00 %
26.01.2020 13:32 8,2 C 12,8 C 7,8 C 88 % 1016,1 hPa 0,0 l/m 2 min 0 min 314 W/m 12,9 km/h (3 Bft) 100,00 %
26.01.2020 13:34 8,3 C 12,2 C 7,8 C 88 % 1016,1 hPa 0,0 l/m 2 min 0 min 316 W/m 12,9 km/h (3 Bft) 95,83 %
26.01.2020 13:36 8,3 C 12,2 C 7,8 C 89 % 1016,0 hPa 0,0 l/m 2 min 0 min 314 W/m 19,3 km/h (3 Bft) 97,92 %
26.01.2020 13:38 8,4 C 11,1 C 7,8 C 88 % 1016,0 hPa 0,0 l/m 2 min 0 min 285 W/m 22,5 km/h (4 Bft) 97,92 %
26.01.2020 13:40 8,4 C 9,4 C 7,2 C 88 % 1015,9 hPa 0,0 l/m 2 min 0 min 199 W/m 22,5 km/h (4 Bft) 97,87 %
26.01.2020 13:42 8,4 C 8,9 C 7,2 C 87 % 1015,8 hPa 0,0 l/m 0 min 0 min 132 W/m 16,1 km/h (3 Bft) 97,87 %
26.01.2020 13:44 8,4 C 9,4 C 7,2 C 87 % 1015,8 hPa 0,0 l/m 0 min 0 min 168 W/m 19,3 km/h (3 Bft) 97,87 %
26.01.2020 13:46 8,4 C 10,0 C 7,8 C 87 % 1015,9 hPa 0,0 l/m 2 min 0 min 251 W/m 22,5 km/h (4 Bft) 97,87 %
26.01.2020 13:48 8,4 C 11,7 C 7,8 C 87 % 1015,9 hPa 0,0 l/m 2 min 0 min 327 W/m 22,5 km/h (4 Bft) 95,74 %
26.01.2020 13:50 8,4 C 11,1 C 7,8 C 87 % 1015,9 hPa 0,0 l/m 2 min 0 min 372 W/m 22,5 km/h (4 Bft) 97,83 %
26.01.2020 13:52 8,5 C 11,1 C 7,8 C 87 % 1015,8 hPa 0,0 l/m 2 min 0 min 338 W/m 22,5 km/h (4 Bft) 97,87 %
26.01.2020 13:54 8,6 C 11,7 C 7,8 C 87 % 1015,8 hPa 0,0 l/m 2 min 0 min 314 W/m 19,3 km/h (3 Bft) 97,62 %
26.01.2020 13:56 8,6 C 11,7 C 7,8 C 87 % 1015,8 hPa 0,0 l/m 2 min 0 min 303 W/m 29,0 km/h (5 Bft) 97,87 %
26.01.2020 13:58 8,7 C 11,7 C 7,8 C 87 % 1015,7 hPa 0,0 l/m 2 min 0 min 297 W/m 25,7 km/h (4 Bft) 98,00 %
26.01.2020 14:00 8,7 C 11,1 C 7,8 C 87 % 1015,7 hPa 0,0 l/m 2 min 0 min 291 W/m 25,7 km/h (4 Bft) 97,92 %
26.01.2020 14:02 8,7 C 11,7 C 8,3 C 86 % 1015,7 hPa 0,0 l/m 2 min 0 min 288 W/m 16,1 km/h (3 Bft) 97,87 %
26.01.2020 14:04 8,8 C 11,7 C 8,3 C 86 % 1015,8 hPa 0,0 l/m 2 min 0 min 283 W/m 19,3 km/h (3 Bft) 97,87 %
26.01.2020 14:06 8,8 C 12,2 C 8,3 C 86 % 1015,9 hPa 0,0 l/m 2 min 0 min 280 W/m 22,5 km/h (4 Bft) 97,87 %
26.01.2020 14:08 8,8 C 11,7 C 8,3 C 86 % 1015,9 hPa 0,0 l/m 2 min 0 min 282 W/m 19,3 km/h (3 Bft) 97,87 %
26.01.2020 14:10 8,9 C 11,7 C 8,3 C 86 % 1015,8 hPa 0,0 l/m 2 min 0 min 281 W/m 19,3 km/h (3 Bft) 97,87 %
26.01.2020 14:12 9,0 C 11,7 C 8,3 C 86 % 1015,8 hPa 0,0 l/m 2 min 0 min 278 W/m 25,7 km/h (4 Bft) 100,00 %
26.01.2020 14:14 9,0 C 12,2 C 7,8 C 86 % 1015,8 hPa 0,0 l/m 2 min 0 min 279 W/m 12,9 km/h (3 Bft) 100,00 %
26.01.2020 14:16 9,1 C 11,7 C 8,3 C 86 % 1015,8 hPa 0,0 l/m 2 min 0 min 276 W/m 19,3 km/h (3 Bft) 100,00 %
26.01.2020 14:18 9,1 C 11,7 C 8,3 C 86 % 1015,8 hPa 0,0 l/m 2 min 0 min 271 W/m 22,5 km/h (4 Bft) 97,87 %
26.01.2020 14:20 9,1 C 11,7 C 8,3 C 85 % 1015,8 hPa 0,0 l/m 2 min 0 min 267 W/m 19,3 km/h (3 Bft) 97,87 %
26.01.2020 14:22 9,2 C 12,2 C 8,3 C 85 % 1015,7 hPa 0,0 l/m 2 min 0 min 263 W/m 19,3 km/h (3 Bft) 100,00 %
26.01.2020 14:24 9,2 C 12,2 C 8,3 C 85 % 1015,8 hPa 0,0 l/m 2 min 0 min 263 W/m 16,1 km/h (3 Bft) 100,00 %
26.01.2020 14:26 9,2 C 11,7 C 8,3 C 85 % 1015,7 hPa 0,0 l/m 2 min 0 min 260 W/m 19,3 km/h (3 Bft) 100,00 %
26.01.2020 14:28 9,2 C 11,7 C 7,8 C 85 % 1015,7 hPa 0,0 l/m 2 min 0 min 255 W/m 22,5 km/h (4 Bft) 100,00 %
26.01.2020 14:30 9,2 C 11,7 C 7,8 C 85 % 1015,7 hPa 0,0 l/m 2 min 0 min 253 W/m 19,3 km/h (3 Bft) 100,00 %
26.01.2020 14:32 9,3 C 11,7 C 7,8 C 85 % 1015,6 hPa 0,0 l/m 2 min 0 min 250 W/m 16,1 km/h (3 Bft) 100,00 %
26.01.2020 14:34 9,3 C 11,7 C 7,8 C 85 % 1015,6 hPa 0,0 l/m 2 min 0 min 244 W/m 16,1 km/h (3 Bft) 97,92 %
26.01.2020 14:36 9,3 C 11,7 C 7,8 C 85 % 1015,6 hPa 0,0 l/m 2 min 0 min 243 W/m 19,3 km/h (3 Bft) 100,00 %
26.01.2020 14:38 9,3 C 11,7 C 7,8 C 85 % 1015,6 hPa 0,0 l/m 2 min 0 min 240 W/m 22,5 km/h (4 Bft) 100,00 %
26.01.2020 14:40 9,3 C 11,7 C 7,8 C 85 % 1015,6 hPa 0,0 l/m 2 min 0 min 233 W/m 22,5 km/h (4 Bft) 97,87 %
26.01.2020 14:42 9,3 C 11,7 C 7,8 C 85 % 1015,6 hPa 0,0 l/m 2 min 0 min 231 W/m 16,1 km/h (3 Bft) 97,83 %
26.01.2020 14:44 9,4 C 11,7 C 7,8 C 85 % 1015,6 hPa 0,0 l/m 2 min 0 min 227 W/m 16,1 km/h (3 Bft) 95,83 %
26.01.2020 14:46 9,4 C 11,7 C 7,8 C 85 % 1015,6 hPa 0,0 l/m 2 min 0 min 225 W/m 19,3 km/h (3 Bft) 97,92 %
26.01.2020 14:48 9,4 C 11,7 C 7,8 C 85 % 1015,6 hPa 0,0 l/m 2 min 0 min 223 W/m 19,3 km/h (3 Bft) 95,74 %
26.01.2020 14:50 9,4 C 12,2 C 7,8 C 85 % 1015,6 hPa 0,0 l/m 2 min 0 min 219 W/m 12,9 km/h (3 Bft) 97,87 %
26.01.2020 14:52 9,4 C 11,7 C 7,8 C 85 % 1015,5 hPa 0,0 l/m 2 min 0 min 218 W/m 19,3 km/h (3 Bft) 97,87 %
26.01.2020 14:54 9,5 C 11,7 C 7,8 C 85 % 1015,5 hPa 0,0 l/m 2 min 0 min 214 W/m 16,1 km/h (3 Bft) 97,87 %
26.01.2020 14:56 9,5 C 11,7 C 7,8 C 85 % 1015,5 hPa 0,0 l/m 2 min 0 min 213 W/m 19,3 km/h (3 Bft) 97,87 %
26.01.2020 14:58 9,5 C 11,7 C 7,8 C 85 % 1015,5 hPa 0,0 l/m 2 min 0 min 210 W/m 19,3 km/h (3 Bft) 97,87 %
26.01.2020 15:00 9,5 C 11,7 C 7,8 C 85 % 1015,5 hPa 0,0 l/m 2 min 0 min 201 W/m 12,9 km/h (3 Bft) 97,83 %
26.01.2020 15:02 9,5 C 11,7 C 7,8 C 85 % 1015,5 hPa 0,0 l/m 2 min 0 min 198 W/m 16,1 km/h (3 Bft) 97,87 %
26.01.2020 15:04 9,6 C 11,7 C 7,8 C 85 % 1015,5 hPa 0,0 l/m 2 min 0 min 193 W/m 12,9 km/h (3 Bft) 97,73 %
26.01.2020 15:06 9,6 C 10,6 C 7,8 C 85 % 1015,5 hPa 0,0 l/m 2 min 0 min 142 W/m 6,4 km/h (2 Bft) 95,74 %
26.01.2020 15:08 9,6 C 10,0 C 7,8 C 85 % 1015,5 hPa 0,0 l/m 0 min 0 min 99 W/m 0,0 km/h (0 Bft) 97,92 %
26.01.2020 15:10 9,5 C 10,0 C 7,8 C 85 % 1015,4 hPa 0,0 l/m 0 min 0 min 125 W/m 19,3 km/h (3 Bft) 97,92 %
26.01.2020 15:12 9,5 C 10,0 C 7,8 C 85 % 1015,4 hPa 0,0 l/m 2 min 0 min 153 W/m 16,1 km/h (3 Bft) 97,87 %
26.01.2020 15:14 9,5 C 10,0 C 7,8 C 85 % 1015,4 hPa 0,0 l/m 2 min 0 min 139 W/m 16,1 km/h (3 Bft) 97,87 %
26.01.2020 15:16 9,5 C 9,4 C 7,8 C 85 % 1015,4 hPa 0,0 l/m 0 min 0 min 81 W/m 25,7 km/h (4 Bft) 97,87 %
26.01.2020 15:18 9,4 C 8,9 C 7,8 C 85 % 1015,4 hPa 0,0 l/m 0 min 0 min 76 W/m 19,3 km/h (3 Bft) 97,87 %
26.01.2020 15:20 9,4 C 8,9 C 7,8 C 84 % 1015,4 hPa 0,0 l/m 0 min 0 min 63 W/m 12,9 km/h (3 Bft) 97,87 %
26.01.2020 15:22 9,4 C 8,3 C 7,8 C 85 % 1015,3 hPa 0,0 l/m 0 min 0 min 55 W/m 19,3 km/h (3 Bft) 100,00 %
26.01.2020 15:24 9,4 C 8,3 C 7,8 C 85 % 1015,3 hPa 0,0 l/m 0 min 0 min 56 W/m 19,3 km/h (3 Bft) 97,87 %
26.01.2020 15:26 9,3 C 8,3 C 7,8 C 85 % 1015,3 hPa 0,0 l/m 0 min 0 min 65 W/m 0,0 km/h (0 Bft) 97,87 %
26.01.2020 15:28 9,3 C 8,3 C 7,8 C 85 % 1015,3 hPa 0,0 l/m 0 min 0 min 76 W/m 16,1 km/h (3 Bft) 97,87 %
26.01.2020 15:30 9,3 C 8,9 C 7,8 C 85 % 1015,3 hPa 0,0 l/m 0 min 0 min 85 W/m 12,9 km/h (3 Bft) 97,56 %
26.01.2020 15:32 9,2 C 8,3 C 7,8 C 85 % 1015,3 hPa 0,0 l/m 0 min 0 min 81 W/m 16,1 km/h (3 Bft) 100,00 %
26.01.2020 15:34 9,2 C 8,3 C 7,8 C 85 % 1015,3 hPa 0,0 l/m 0 min 0 min 71 W/m 16,1 km/h (3 Bft) 95,74 %
26.01.2020 15:36 9,2 C 8,3 C 7,8 C 85 % 1015,2 hPa 0,0 l/m 0 min 0 min 61 W/m 16,1 km/h (3 Bft) 97,92 %
26.01.2020 15:38 9,1 C 8,3 C 7,8 C 85 % 1015,2 hPa 0,0 l/m 0 min 0 min 57 W/m 16,1 km/h (3 Bft) 97,87 %
26.01.2020 15:40 9,1 C 8,3 C 7,8 C 85 % 1015,2 hPa 0,0 l/m 0 min 0 min 69 W/m 19,3 km/h (3 Bft) 97,87 %
26.01.2020 15:42 9,1 C 8,9 C 7,8 C 85 % 1015,2 hPa 0,0 l/m 0 min 0 min 81 W/m 16,1 km/h (3 Bft) 97,87 %
26.01.2020 15:44 9,1 C 8,9 C 7,8 C 85 % 1015,2 hPa 0,0 l/m 0 min 0 min 91 W/m 16,1 km/h (3 Bft) 97,92 %
26.01.2020 15:46 9,1 C 8,9 C 7,8 C 85 % 1015,2 hPa 0,0 l/m 2 min 0 min 98 W/m 16,1 km/h (3 Bft) 97,87 %
26.01.2020 15:48 9,1 C 8,9 C 7,8 C 85 % 1015,1 hPa 0,0 l/m 2 min 0 min 101 W/m 12,9 km/h (3 Bft) 97,87 %
26.01.2020 15:50 9,1 C 8,9 C 7,8 C 86 % 1015,2 hPa 0,0 l/m 2 min 0 min 91 W/m 16,1 km/h (3 Bft) 97,87 %
26.01.2020 15:52 9,1 C 8,9 C 7,8 C 86 % 1015,1 hPa 0,0 l/m 0 min 0 min 75 W/m 16,1 km/h (3 Bft) 97,83 %
26.01.2020 15:54 9,1 C 8,9 C 7,8 C 86 % 1015,1 hPa 0,0 l/m 0 min 0 min 64 W/m 19,3 km/h (3 Bft) 97,92 %
26.01.2020 15:56 9,1 C 8,9 C 7,8 C 86 % 1015,0 hPa 0,0 l/m 0 min 0 min 59 W/m 16,1 km/h (3 Bft) 95,74 %
26.01.2020 15:58 9,1 C 8,9 C 7,8 C 86 % 1015,0 hPa 0,0 l/m 0 min 0 min 55 W/m 16,1 km/h (3 Bft) 93,48 %
26.01.2020 16:00 9,1 C 8,3 C 7,8 C 86 % 1015,0 hPa 0,0 l/m 0 min 0 min 53 W/m 19,3 km/h (3 Bft) 95,74 %
26.01.2020 16:02 9,1 C 8,3 C 7,8 C 86 % 1015,0 hPa 0,0 l/m 0 min 0 min 51 W/m 16,1 km/h (3 Bft) 91,49 %
26.01.2020 16:04 9,0 C 8,3 C 7,8 C 86 % 1015,0 hPa 0,0 l/m 0 min 0 min 51 W/m 12,9 km/h (3 Bft) 95,24 %
26.01.2020 16:06 9,0 C 8,3 C 7,2 C 86 % 1015,0 hPa 0,0 l/m 0 min 0 min 51 W/m 6,4 km/h (2 Bft) 95,83 %
26.01.2020 16:08 9,0 C 8,3 C 7,2 C 86 % 1014,9 hPa 0,0 l/m 0 min 0 min 49 W/m 12,9 km/h (3 Bft) 95,83 %
26.01.2020 16:10 9,0 C 8,3 C 7,2 C 86 % 1014,9 hPa 0,0 l/m 0 min 0 min 47 W/m 16,1 km/h (3 Bft) 93,75 %
26.01.2020 16:12 8,9 C 8,3 C 7,2 C 86 % 1014,9 hPa 0,0 l/m 0 min 0 min 47 W/m 19,3 km/h (3 Bft) 93,75 %
26.01.2020 16:14 8,9 C 8,3 C 7,2 C 86 % 1014,9 hPa 0,0 l/m 0 min 0 min 47 W/m 19,3 km/h (3 Bft) 95,74 %
26.01.2020 16:16 8,9 C 8,3 C 7,2 C 86 % 1014,9 hPa 0,0 l/m 0 min 0 min 43 W/m 19,3 km/h (3 Bft) 95,74 %
26.01.2020 16:18 8,9 C 8,3 C 7,2 C 86 % 1014,8 hPa 0,0 l/m 0 min 0 min 40 W/m 16,1 km/h (3 Bft) 97,87 %
26.01.2020 16:20 8,8 C 8,3 C 7,2 C 86 % 1014,8 hPa 0,0 l/m 0 min 0 min 39 W/m 19,3 km/h (3 Bft) 97,87 %
26.01.2020 16:22 8,8 C 8,3 C 7,2 C 86 % 1014,8 hPa 0,0 l/m 0 min 0 min 37 W/m 12,9 km/h (3 Bft) 97,83 %
26.01.2020 16:24 8,8 C 7,8 C 7,2 C 86 % 1014,8 hPa 0,0 l/m 0 min 0 min 36 W/m 19,3 km/h (3 Bft) 97,87 %
26.01.2020 16:26 8,8 C 7,8 C 7,2 C 86 % 1014,8 hPa 0,0 l/m 0 min 0 min 35 W/m 12,9 km/h (3 Bft) 97,87 %
26.01.2020 16:28 8,8 C 7,8 C 7,2 C 86 % 1014,9 hPa 0,0 l/m 0 min 0 min 33 W/m 19,3 km/h (3 Bft) 97,56 %
26.01.2020 16:30 8,7 C 7,8 C 7,2 C 86 % 1014,9 hPa 0,0 l/m 0 min 0 min 32 W/m 19,3 km/h (3 Bft) 97,92 %
26.01.2020 16:32 8,7 C 7,8 C 7,2 C 86 % 1014,9 hPa 0,0 l/m 0 min 0 min 31 W/m 12,9 km/h (3 Bft) 97,96 %
26.01.2020 16:34 8,7 C 7,8 C 6,7 C 86 % 1014,9 hPa 0,0 l/m 0 min 0 min 29 W/m 16,1 km/h (3 Bft) 93,62 %
26.01.2020 16:36 8,6 C 7,8 C 6,7 C 86 % 1014,8 hPa 0,0 l/m 0 min 0 min 27 W/m 12,9 km/h (3 Bft) 97,87 %
26.01.2020 16:38 8,6 C 7,8 C 6,7 C 86 % 1014,8 hPa 0,0 l/m 0 min 0 min 26 W/m 6,4 km/h (2 Bft) 97,83 %
26.01.2020 16:40 8,6 C 7,8 C 6,7 C 86 % 1014,8 hPa 0,0 l/m 0 min 0 min 24 W/m 16,1 km/h (3 Bft) 97,87 %
26.01.2020 16:42 8,6 C 7,8 C 6,7 C 86 % 1014,8 hPa 0,0 l/m 0 min 0 min 21 W/m 22,5 km/h (4 Bft) 97,87 %
26.01.2020 16:44 8,5 C 7,8 C 6,7 C 86 % 1014,8 hPa 0,0 l/m 0 min 0 min 19 W/m 12,9 km/h (3 Bft) 97,92 %
26.01.2020 16:46 8,5 C 7,8 C 6,7 C 86 % 1014,8 hPa 0,0 l/m 0 min 0 min 18 W/m 16,1 km/h (3 Bft) 97,92 %
26.01.2020 16:48 8,4 C 7,2 C 6,7 C 86 % 1014,8 hPa 0,0 l/m 0 min 0 min 17 W/m 19,3 km/h (3 Bft) 97,87 %
26.01.2020 16:50 8,4 C 7,2 C 6,7 C 86 % 1014,8 hPa 0,0 l/m 0 min 0 min 16 W/m 19,3 km/h (3 Bft) 97,87 %
26.01.2020 16:52 8,4 C 7,2 C 6,7 C 87 % 1014,8 hPa 0,0 l/m 0 min 0 min 14 W/m 22,5 km/h (4 Bft) 97,87 %
26.01.2020 16:54 8,3 C 7,2 C 6,7 C 87 % 1014,7 hPa 0,0 l/m 0 min 0 min 14 W/m 16,1 km/h (3 Bft) 97,87 %
26.01.2020 16:56 8,3 C 7,2 C 6,7 C 87 % 1014,8 hPa 0,0 l/m 0 min 0 min 12 W/m 9,7 km/h (2 Bft) 100,00 %
26.01.2020 16:58 8,3 C 7,2 C 6,7 C 87 % 1014,8 hPa 0,0 l/m 0 min 0 min 12 W/m 0,0 km/h (0 Bft) 100,00 %
26.01.2020 17:00 8,2 C 7,2 C 6,7 C 87 % 1014,8 hPa 0,0 l/m 0 min 0 min 11 W/m 16,1 km/h (3 Bft) 100,00 %
26.01.2020 17:02 8,2 C 7,2 C 6,1 C 87 % 1014,8 hPa 0,0 l/m 0 min 0 min 9 W/m 3,2 km/h (1 Bft) 97,87 %
26.01.2020 17:04 8,2 C 7,2 C 6,1 C 87 % 1014,8 hPa 0,0 l/m 0 min 0 min 7 W/m 12,9 km/h (3 Bft) 100,00 %
26.01.2020 17:06 8,2 C 7,2 C 6,1 C 87 % 1014,7 hPa 0,0 l/m 0 min 0 min 7 W/m 16,1 km/h (3 Bft) 97,56 %
26.01.2020 17:08 8,1 C 7,2 C 6,1 C 87 % 1014,8 hPa 0,0 l/m 0 min 0 min 5 W/m 22,5 km/h (4 Bft) 100,00 %
26.01.2020 17:10 8,1 C 7,2 C 6,1 C 87 % 1014,8 hPa 0,0 l/m 0 min 0 min 3 W/m 32,2 km/h (5 Bft) 97,87 %
26.01.2020 17:12 8,1 C 7,2 C 6,1 C 87 % 1014,7 hPa 0,0 l/m 0 min 0 min 0 W/m 22,5 km/h (4 Bft) 97,87 %
26.01.2020 17:14 8,1 C 7,2 C 6,1 C 87 % 1014,7 hPa 0,0 l/m 0 min 0 min 0 W/m 16,1 km/h (3 Bft) 100,00 %
26.01.2020 17:16 8,0 C 7,2 C 6,1 C 87 % 1014,7 hPa 0,0 l/m 0 min 0 min 0 W/m 0,0 km/h (0 Bft) 100,00 %
26.01.2020 17:18 7,9 C 7,2 C 6,1 C 87 % 1014,7 hPa 0,0 l/m 0 min 0 min 0 W/m 0,0 km/h (0 Bft) 100,00 %
26.01.2020 17:20 7,9 C 7,2 C 6,1 C 87 % 1014,7 hPa 0,0 l/m 0 min 0 min 0 W/m 0,0 km/h (0 Bft) 97,87 %
26.01.2020 17:22 7,9 C 7,2 C 6,1 C 87 % 1014,7 hPa 0,0 l/m 0 min 0 min 0 W/m 19,3 km/h (3 Bft) 95,74 %
26.01.2020 17:24 7,9 C 7,2 C 6,7 C 88 % 1014,7 hPa 0,0 l/m 0 min 0 min 0 W/m 19,3 km/h (3 Bft) 97,87 %
26.01.2020 17:26 7,9 C 7,2 C 6,1 C 88 % 1014,7 hPa 0,0 l/m 0 min 0 min 0 W/m 16,1 km/h (3 Bft) 97,87 %
26.01.2020 17:28 7,9 C 7,2 C 6,7 C 88 % 1014,7 hPa 0,0 l/m 0 min 0 min 0 W/m 16,1 km/h (3 Bft) 97,87 %
26.01.2020 17:30 7,9 C 7,2 C 6,7 C 88 % 1014,7 hPa 0,0 l/m 0 min 0 min 0 W/m 16,1 km/h (3 Bft) 97,87 %
26.01.2020 17:32 7,9 C 7,2 C 6,1 C 88 % 1014,8 hPa 0,0 l/m 0 min 0 min 0 W/m 16,1 km/h (3 Bft) 97,83 %
26.01.2020 17:34 7,8 C 7,2 C 6,1 C 88 % 1014,8 hPa 0,0 l/m 0 min 0 min 0 W/m 19,3 km/h (3 Bft) 97,14 %
26.01.2020 17:36 7,8 C 7,2 C 6,1 C 88 % 1014,8 hPa 0,0 l/m 0 min 0 min 0 W/m 22,5 km/h (4 Bft) 98,28 %
26.01.2020 17:38 7,8 C 7,2 C 6,1 C 88 % 1014,7 hPa 0,0 l/m 0 min 0 min 0 W/m 16,1 km/h (3 Bft) 97,56 %
26.01.2020 17:40 7,8 C 7,2 C 6,1 C 88 % 1014,7 hPa 0,0 l/m 0 min 0 min 0 W/m 12,9 km/h (3 Bft) 97,87 %
26.01.2020 17:42 7,8 C 6,7 C 6,1 C 88 % 1014,7 hPa 0,0 l/m 0 min 0 min 0 W/m 19,3 km/h (3 Bft) 93,62 %
26.01.2020 17:44 7,8 C 6,7 C 6,1 C 88 % 1014,7 hPa 0,0 l/m 0 min 0 min 0 W/m 19,3 km/h (3 Bft) 97,92 %
26.01.2020 17:46 7,8 C 7,2 C 6,1 C 88 % 1014,7 hPa 0,0 l/m 0 min 0 min 0 W/m 25,7 km/h (4 Bft) 97,87 %
26.01.2020 17:48 7,8 C 6,7 C 6,1 C 88 % 1014,7 hPa 0,0 l/m 0 min 0 min 0 W/m 16,1 km/h (3 Bft) 97,92 %
26.01.2020 17:50 7,7 C 6,7 C 6,1 C 88 % 1014,7 hPa 0,0 l/m 0 min 0 min 0 W/m 22,5 km/h (4 Bft) 97,92 %
26.01.2020 17:52 7,7 C 6,7 C 6,1 C 88 % 1014,7 hPa 0,0 l/m 0 min 0 min 0 W/m 16,1 km/h (3 Bft) 95,83 %
26.01.2020 17:54 7,7 C 6,7 C 6,1 C 88 % 1014,7 hPa 0,0 l/m 0 min 0 min 0 W/m 22,5 km/h (4 Bft) 97,87 %
26.01.2020 17:56 7,7 C 6,7 C 6,1 C 88 % 1014,7 hPa 0,0 l/m 0 min 0 min 0 W/m 22,5 km/h (4 Bft) 95,74 %
26.01.2020 17:58 7,7 C 6,7 C 6,1 C 88 % 1014,8 hPa 0,0 l/m 0 min 0 min 0 W/m 19,3 km/h (3 Bft) 95,74 %
26.01.2020 18:00 7,7 C 6,7 C 6,1 C 88 % 1014,7 hPa 0,0 l/m 0 min 0 min 0 W/m 16,1 km/h (3 Bft) 95,74 %
26.01.2020 18:02 7,6 C 6,7 C 6,1 C 88 % 1014,7 hPa 0,0 l/m 0 min 0 min 0 W/m 16,1 km/h (3 Bft) 95,24 %
26.01.2020 18:04 7,6 C 6,7 C 5,6 C 88 % 1014,7 hPa 0,0 l/m 0 min 0 min 0 W/m 16,1 km/h (3 Bft) 96,00 %
26.01.2020 18:06 7,6 C 6,7 C 5,6 C 88 % 1014,7 hPa 0,0 l/m 0 min 0 min 0 W/m 19,3 km/h (3 Bft) 93,62 %
26.01.2020 18:08 7,6 C 6,7 C 5,6 C 88 % 1014,7 hPa 0,0 l/m 0 min 0 min 0 W/m 22,5 km/h (4 Bft) 95,74 %
26.01.2020 18:10 7,6 C 6,7 C 5,6 C 88 % 1014,8 hPa 0,0 l/m 0 min 0 min 0 W/m 19,3 km/h (3 Bft) 95,74 %
26.01.2020 18:12 7,5 C 6,7 C 5,6 C 89 % 1014,8 hPa 0,0 l/m 0 min 0 min 0 W/m 16,1 km/h (3 Bft) 97,92 %
26.01.2020 18:14 7,5 C 6,7 C 5,6 C 89 % 1014,8 hPa 0,0 l/m 0 min 0 min 0 W/m 12,9 km/h (3 Bft) 95,74 %
26.01.2020 18:16 7,5 C 6,7 C 6,1 C 89 % 1014,7 hPa 0,0 l/m 0 min 0 min 0 W/m 19,3 km/h (3 Bft) 95,65 %
26.01.2020 18:18 7,4 C 6,7 C 6,1 C 89 % 1014,7 hPa 0,0 l/m 0 min 0 min 0 W/m 19,3 km/h (3 Bft) 97,87 %
26.01.2020 18:20 7,4 C 6,7 C 6,1 C 89 % 1014,7 hPa 0,0 l/m 0 min 0 min 0 W/m 16,1 km/h (3 Bft) 95,74 %
26.01.2020 18:22 7,4 C 6,7 C 6,1 C 89 % 1014,8 hPa 0,0 l/m 0 min 0 min 0 W/m 22,5 km/h (4 Bft) 97,87 %
26.01.2020 18:24 7,4 C 6,7 C 6,1 C 89 % 1014,8 hPa 0,0 l/m 0 min 0 min 0 W/m 16,1 km/h (3 Bft) 97,56 %
26.01.2020 18:26 7,4 C 6,7 C 6,1 C 89 % 1014,8 hPa 0,0 l/m 0 min 0 min 0 W/m 16,1 km/h (3 Bft) 97,92 %
26.01.2020 18:28 7,4 C 6,7 C 6,1 C 89 % 1014,7 hPa 0,0 l/m 0 min 0 min 0 W/m 19,3 km/h (3 Bft) 97,92 %
26.01.2020 18:30 7,4 C 6,7 C 6,1 C 89 % 1014,7 hPa 0,0 l/m 0 min 0 min 0 W/m 16,1 km/h (3 Bft) 91,67 %
26.01.2020 18:32 7,4 C 6,7 C 6,1 C 89 % 1014,7 hPa 0,0 l/m 0 min 0 min 0 W/m 16,1 km/h (3 Bft) 97,92 %
26.01.2020 18:34 7,4 C 6,7 C 6,1 C 89 % 1014,7 hPa 0,0 l/m 0 min 0 min 0 W/m 22,5 km/h (4 Bft) 97,92 %
26.01.2020 18:36 7,4 C 6,7 C 6,1 C 89 % 1014,7 hPa 0,0 l/m 0 min 0 min 0 W/m 19,3 km/h (3 Bft) 97,87 %
26.01.2020 18:38 7,4 C 6,7 C 6,1 C 89 % 1014,7 hPa 0,0 l/m 0 min 0 min 0 W/m 22,5 km/h (4 Bft) 97,87 %
26.01.2020 18:40 7,4 C 6,7 C 6,1 C 89 % 1014,7 hPa 0,0 l/m 0 min 0 min 0 W/m 16,1 km/h (3 Bft) 95,65 %
26.01.2020 18:42 7,4 C 6,7 C 6,1 C 89 % 1014,7 hPa 0,0 l/m 0 min 0 min 0 W/m 22,5 km/h (4 Bft) 95,74 %
26.01.2020 18:44 7,4 C 6,7 C 6,1 C 89 % 1014,7 hPa 0,0 l/m 0 min 0 min 0 W/m 16,1 km/h (3 Bft) 100,00 %
26.01.2020 18:46 7,4 C 6,7 C 6,1 C 89 % 1014,7 hPa 0,0 l/m 0 min 0 min 0 W/m 19,3 km/h (3 Bft) 100,00 %
26.01.2020 18:48 7,4 C 6,7 C 6,1 C 89 % 1014,7 hPa 0,0 l/m 0 min 0 min 0 W/m 16,1 km/h (3 Bft) 100,00 %
26.01.2020 18:50 7,4 C 6,7 C 6,1 C 89 % 1014,7 hPa 0,0 l/m 0 min 0 min 0 W/m 12,9 km/h (3 Bft) 100,00 %
26.01.2020 18:52 7,4 C 6,7 C 6,1 C 89 % 1014,6 hPa 0,0 l/m 0 min 0 min 0 W/m 16,1 km/h (3 Bft) 97,92 %
26.01.2020 18:54 7,4 C 6,7 C 6,1 C 89 % 1014,6 hPa 0,0 l/m 0 min 0 min 0 W/m 19,3 km/h (3 Bft) 100,00 %
26.01.2020 18:56 7,4 C 6,7 C 6,1 C 89 % 1014,6 hPa 0,0 l/m 0 min 0 min 0 W/m 19,3 km/h (3 Bft) 100,00 %
26.01.2020 18:58 7,4 C 6,7 C 6,1 C 89 % 1014,6 hPa 0,0 l/m 0 min 0 min 0 W/m 22,5 km/h (4 Bft) 100,00 %
26.01.2020 19:00 7,4 C 6,7 C 6,1 C 89 % 1014,6 hPa 0,0 l/m 0 min 0 min 0 W/m 22,5 km/h (4 Bft) 100,00 %
26.01.2020 19:02 7,4 C 6,7 C 6,1 C 89 % 1014,6 hPa 0,0 l/m 0 min 0 min 0 W/m 16,1 km/h (3 Bft) 97,56 %
26.01.2020 19:04 7,4 C 6,7 C 6,1 C 89 % 1014,6 hPa 0,0 l/m 0 min 0 min 0 W/m 19,3 km/h (3 Bft) 97,87 %
26.01.2020 19:06 7,4 C 6,7 C 6,1 C 89 % 1014,6 hPa 0,0 l/m 0 min 0 min 0 W/m 19,3 km/h (3 Bft) 100,00 %
26.01.2020 19:08 7,4 C 6,7 C 6,1 C 89 % 1014,6 hPa 0,0 l/m 0 min 0 min 0 W/m 19,3 km/h (3 Bft) 100,00 %
26.01.2020 19:10 7,3 C 6,7 C 6,1 C 89 % 1014,7 hPa 0,0 l/m 0 min 0 min 0 W/m 25,7 km/h (4 Bft) 100,00 %
26.01.2020 19:12 7,3 C 6,7 C 6,1 C 89 % 1014,7 hPa 0,0 l/m 0 min 0 min 0 W/m 19,3 km/h (3 Bft) 100,00 %
26.01.2020 19:14 7,3 C 6,7 C 6,1 C 89 % 1014,7 hPa 0,0 l/m 0 min 0 min 0 W/m 16,1 km/h (3 Bft) 97,92 %
26.01.2020 19:16 7,3 C 6,7 C 6,1 C 89 % 1014,8 hPa 0,0 l/m 0 min 0 min 0 W/m 22,5 km/h (4 Bft) 100,00 %
26.01.2020 19:18 7,3 C 6,7 C 6,1 C 89 % 1014,7 hPa 0,0 l/m 0 min 0 min 0 W/m 19,3 km/h (3 Bft) 100,00 %
26.01.2020 19:20 7,3 C 6,7 C 6,1 C 89 % 1014,8 hPa 0,0 l/m 0 min 0 min 0 W/m 16,1 km/h (3 Bft) 100,00 %
26.01.2020 19:22 7,3 C 6,7 C 6,1 C 89 % 1014,8 hPa 0,0 l/m 0 min 0 min 0 W/m 16,1 km/h (3 Bft) 97,87 %
26.01.2020 19:24 7,3 C 6,7 C 6,1 C 89 % 1014,8 hPa 0,0 l/m 0 min 0 min 0 W/m 16,1 km/h (3 Bft) 100,00 %
26.01.2020 19:26 7,3 C 6,7 C 6,1 C 89 % 1014,7 hPa 0,0 l/m 0 min 0 min 0 W/m 19,3 km/h (3 Bft) 97,83 %
26.01.2020 19:28 7,3 C 6,7 C 6,1 C 89 % 1014,7 hPa 0,0 l/m 0 min 0 min 0 W/m 16,1 km/h (3 Bft) 97,87 %
26.01.2020 19:30 7,3 C 6,7 C 6,1 C 89 % 1014,8 hPa 0,0 l/m 0 min 0 min 0 W/m 16,1 km/h (3 Bft) 97,62 %
26.01.2020 19:32 7,3 C 6,7 C 6,1 C 89 % 1014,8 hPa 0,0 l/m 0 min 0 min 0 W/m 19,3 km/h (3 Bft) 95,83 %
26.01.2020 19:34 7,3 C 6,7 C 6,1 C 89 % 1014,8 hPa 0,0 l/m 0 min 0 min 0 W/m 16,1 km/h (3 Bft) 97,92 %
26.01.2020 19:36 7,3 C 6,7 C 6,1 C 89 % 1014,7 hPa 0,0 l/m 0 min 0 min 0 W/m 16,1 km/h (3 Bft) 95,83 %
26.01.2020 19:38 7,2 C 6,7 C 6,1 C 89 % 1014,7 hPa 0,0 l/m 0 min 0 min 0 W/m 12,9 km/h (3 Bft) 97,92 %
26.01.2020 19:40 7,2 C 6,7 C 6,1 C 89 % 1014,7 hPa 0,0 l/m 0 min 0 min 0 W/m 12,9 km/h (3 Bft) 97,87 %
26.01.2020 19:42 7,2 C 6,7 C 6,1 C 89 % 1014,8 hPa 0,0 l/m 0 min 0 min 0 W/m 19,3 km/h (3 Bft) 97,87 %
26.01.2020 19:44 7,2 C 6,7 C 6,1 C 89 % 1014,7 hPa 0,0 l/m 0 min 0 min 0 W/m 16,1 km/h (3 Bft) 97,87 %
26.01.2020 19:46 7,2 C 6,7 C 5,6 C 89 % 1014,7 hPa 0,0 l/m 0 min 0 min 0 W/m 12,9 km/h (3 Bft) 97,87 %
26.01.2020 19:48 7,2 C 6,7 C 5,6 C 89 % 1014,7 hPa 0,0 l/m 0 min 0 min 0 W/m 16,1 km/h (3 Bft) 97,87 %
26.01.2020 19:50 7,2 C 6,7 C 5,6 C 89 % 1014,7 hPa 0,0 l/m 0 min 0 min 0 W/m 19,3 km/h (3 Bft) 97,83 %
26.01.2020 19:52 7,2 C 6,7 C 5,6 C 89 % 1014,7 hPa 0,0 l/m 0 min 0 min 0 W/m 19,3 km/h (3 Bft) 97,62 %
26.01.2020 19:54 7,2 C 6,1 C 5,6 C 89 % 1014,7 hPa 0,0 l/m 0 min 0 min 0 W/m 19,3 km/h (3 Bft) 97,87 %
26.01.2020 19:56 7,2 C 6,1 C 5,6 C 89 % 1014,6 hPa 0,0 l/m 0 min 0 min 0 W/m 0,0 km/h (0 Bft) 97,87 %
26.01.2020 19:58 7,2 C 6,1 C 5,6 C 89 % 1014,7 hPa 0,0 l/m 0 min 0 min 0 W/m 16,1 km/h (3 Bft) 97,87 %
26.01.2020 20:00 7,1 C 6,1 C 5,6 C 89 % 1014,8 hPa 0,0 l/m 0 min 0 min 0 W/m 16,1 km/h (3 Bft) 95,74 %
26.01.2020 20:02 7,1 C 6,1 C 5,6 C 89 % 1014,8 hPa 0,0 l/m 0 min 0 min 0 W/m 0,0 km/h (0 Bft) 95,74 %
26.01.2020 20:04 7,1 C 6,1 C 5,6 C 89 % 1014,8 hPa 0,0 l/m 0 min 0 min 0 W/m 16,1 km/h (3 Bft) 95,74 %
26.01.2020 20:06 7,1 C 6,1 C 5,6 C 89 % 1014,8 hPa 0,0 l/m 0 min 0 min 0 W/m 19,3 km/h (3 Bft) 95,65 %
26.01.2020 20:08 7,1 C 6,1 C 5,6 C 90 % 1014,7 hPa 0,0 l/m 0 min 0 min 0 W/m 0,0 km/h (0 Bft) 95,74 %
26.01.2020 20:10 7,1 C 6,1 C 5,6 C 90 % 1014,6 hPa 0,0 l/m 0 min 0 min 0 W/m 3,2 km/h (1 Bft) 95,74 %
26.01.2020 20:12 7,1 C 6,1 C 5,6 C 90 % 1014,7 hPa 0,0 l/m 0 min 0 min 0 W/m 12,9 km/h (3 Bft) 95,74 %
26.01.2020 20:14 7,1 C 6,1 C 5,6 C 90 % 1014,7 hPa 0,0 l/m 0 min 0 min 0 W/m 6,4 km/h (2 Bft) 95,74 %
26.01.2020 20:16 7,1 C 6,1 C 5,6 C 90 % 1014,8 hPa 0,0 l/m 0 min 0 min 0 W/m 0,0 km/h (0 Bft) 93,62 %
26.01.2020 20:18 7,1 C 6,1 C 5,6 C 90 % 1014,8 hPa 0,0 l/m 0 min 0 min 0 W/m 0,0 km/h (0 Bft) 95,65 %
26.01.2020 20:20 7,0 C 6,1 C 5,6 C 90 % 1014,8 hPa 0,0 l/m 0 min 0 min 0 W/m 0,0 km/h (0 Bft) 95,74 %
26.01.2020 20:22 7,0 C 6,1 C 5,6 C 90 % 1014,8 hPa 0,0 l/m 0 min 0 min 0 W/m 0,0 km/h (0 Bft) 95,74 %
26.01.2020 20:24 7,0 C 6,1 C 5,6 C 90 % 1014,8 hPa 0,0 l/m 0 min 0 min 0 W/m 12,9 km/h (3 Bft) 95,74 %
26.01.2020 20:26 7,0 C 6,1 C 5,6 C 90 % 1014,8 hPa 0,0 l/m 0 min 0 min 0 W/m 6,4 km/h (2 Bft) 97,87 %
26.01.2020 20:28 7,0 C 6,1 C 5,6 C 90 % 1014,8 hPa 0,0 l/m 0 min 0 min 0 W/m 0,0 km/h (0 Bft) 93,62 %
26.01.2020 20:30 7,0 C 6,1 C 5,6 C 90 % 1014,8 hPa 0,0 l/m 0 min 0 min 0 W/m 0,0 km/h (0 Bft) 97,83 %
26.01.2020 20:32 6,9 C 6,1 C 5,6 C 90 % 1014,8 hPa 0,0 l/m 0 min 0 min 0 W/m 0,0 km/h (0 Bft) 97,87 %
26.01.2020 20:34 6,9 C 6,1 C 5,6 C 90 % 1014,8 hPa 0,0 l/m 0 min 0 min 0 W/m 0,0 km/h (0 Bft) 93,62 %
26.01.2020 20:36 6,9 C 6,1 C 5,6 C 90 % 1014,8 hPa 0,0 l/m 0 min 0 min 0 W/m 0,0 km/h (0 Bft) 93,62 %
26.01.2020 20:38 6,9 C 6,1 C 5,6 C 90 % 1014,8 hPa 0,0 l/m 0 min 0 min 0 W/m 19,3 km/h (3 Bft) 93,62 %
26.01.2020 20:40 6,9 C 6,1 C 5,6 C 90 % 1014,8 hPa 0,0 l/m 0 min 0 min 0 W/m 12,9 km/h (3 Bft) 97,87 %
26.01.2020 20:42 6,9 C 6,1 C 5,6 C 90 % 1014,7 hPa 0,0 l/m 0 min 0 min 0 W/m 16,1 km/h (3 Bft) 93,48 %
26.01.2020 20:44 6,9 C 6,1 C 5,6 C 90 % 1014,6 hPa 0,0 l/m 0 min 0 min 0 W/m 16,1 km/h (3 Bft) 95,74 %
26.01.2020 20:46 6,9 C 6,1 C 5,6 C 90 % 1014,6 hPa 0,0 l/m 0 min 0 min 0 W/m 12,9 km/h (3 Bft) 97,87 %
26.01.2020 20:48 6,9 C 6,1 C 5,6 C 91 % 1014,6 hPa 0,0 l/m 0 min 0 min 0 W/m 16,1 km/h (3 Bft) 95,74 %
26.01.2020 20:50 6,9 C 6,1 C 5,6 C 91 % 1014,5 hPa 0,0 l/m 0 min 0 min 0 W/m 12,9 km/h (3 Bft) 95,74 %
26.01.2020 20:52 6,9 C 6,1 C 5,6 C 91 % 1014,6 hPa 0,0 l/m 0 min 0 min 0 W/m 12,9 km/h (3 Bft) 97,87 %
26.01.2020 20:54 6,9 C 6,1 C 5,6 C 91 % 1014,6 hPa 0,0 l/m 0 min 0 min 0 W/m 19,3 km/h (3 Bft) 97,83 %
26.01.2020 20:56 6,9 C 6,1 C 5,0 C 91 % 1014,6 hPa 0,0 l/m 0 min 0 min 0 W/m 16,1 km/h (3 Bft) 95,74 %
26.01.2020 20:58 6,9 C 6,1 C 5,0 C 91 % 1014,6 hPa 0,0 l/m 0 min 0 min 0 W/m 19,3 km/h (3 Bft) 95,74 %
26.01.2020 21:00 6,8 C 6,1 C 5,0 C 91 % 1014,6 hPa 0,0 l/m 0 min 0 min 0 W/m 6,4 km/h (2 Bft) 97,87 %
26.01.2020 21:02 6,8 C 6,1 C 5,0 C 91 % 1014,6 hPa 0,0 l/m 0 min 0 min 0 W/m 0,0 km/h (0 Bft) 97,87 %
26.01.2020 21:04 6,8 C 6,1 C 5,0 C 91 % 1014,6 hPa 0,0 l/m 0 min 0 min 0 W/m 16,1 km/h (3 Bft) 97,83 %
26.01.2020 21:06 6,8 C 6,1 C 5,0 C 91 % 1014,6 hPa 0,0 l/m 0 min 0 min 0 W/m 12,9 km/h (3 Bft) 95,74 %
26.01.2020 21:08 6,8 C 6,1 C 5,0 C 91 % 1014,6 hPa 0,0 l/m 0 min 0 min 0 W/m 12,9 km/h (3 Bft) 97,87 %
26.01.2020 21:10 6,8 C 5,6 C 5,0 C 91 % 1014,6 hPa 0,0 l/m 0 min 0 min 0 W/m 0,0 km/h (0 Bft) 95,74 %
26.01.2020 21:12 6,7 C 5,6 C 5,0 C 91 % 1014,7 hPa 0,0 l/m 0 min 0 min 0 W/m 12,9 km/h (3 Bft) 97,87 %
26.01.2020 21:14 6,7 C 5,6 C 5,0 C 90 % 1014,7 hPa 0,0 l/m 0 min 0 min 0 W/m 16,1 km/h (3 Bft) 95,74 %
26.01.2020 21:16 6,7 C 5,6 C 5,0 C 91 % 1014,6 hPa 0,0 l/m 0 min 0 min 0 W/m 12,9 km/h (3 Bft) 95,65 %
26.01.2020 21:18 6,7 C 5,6 C 5,0 C 91 % 1014,7 hPa 0,0 l/m 0 min 0 min 0 W/m 6,4 km/h (2 Bft) 97,87 %
26.01.2020 21:20 6,7 C 5,6 C 5,0 C 91 % 1014,6 hPa 0,0 l/m 0 min 0 min 0 W/m 0,0 km/h (0 Bft) 97,87 %
26.01.2020 21:22 6,6 C 5,6 C 5,0 C 91 % 1014,6 hPa 0,0 l/m 0 min 0 min 0 W/m 0,0 km/h (0 Bft) 95,74 %
26.01.2020 21:24 6,6 C 5,6 C 5,0 C 91 % 1014,6 hPa 0,0 l/m 0 min 0 min 0 W/m 0,0 km/h (0 Bft) 97,87 %
26.01.2020 21:26 6,6 C 5,6 C 5,0 C 91 % 1014,6 hPa 0,0 l/m 0 min 0 min 0 W/m 0,0 km/h (0 Bft) 97,87 %
26.01.2020 21:28 6,6 C 5,6 C 4,4 C 91 % 1014,6 hPa 0,0 l/m 0 min 0 min 0 W/m 0,0 km/h (0 Bft) 97,83 %
26.01.2020 21:30 6,5 C 5,6 C 4,4 C 91 % 1014,6 hPa 0,0 l/m 0 min 0 min 0 W/m 0,0 km/h (0 Bft) 100,00 %
26.01.2020 21:32 6,5 C 5,6 C 5,0 C 91 % 1014,6 hPa 0,0 l/m 0 min 0 min 0 W/m 0,0 km/h (0 Bft) 100,00 %
26.01.2020 21:34 6,5 C 5,6 C 4,4 C 91 % 1014,5 hPa 0,0 l/m 0 min 0 min 0 W/m 0,0 km/h (0 Bft) 97,87 %
26.01.2020 21:36 6,5 C 5,6 C 4,4 C 91 % 1014,5 hPa 0,0 l/m 0 min 0 min 0 W/m 0,0 km/h (0 Bft) 100,00 %
26.01.2020 21:38 6,5 C 5,6 C 5,0 C 91 % 1014,5 hPa 0,0 l/m 0 min 0 min 0 W/m 0,0 km/h (0 Bft) 100,00 %
26.01.2020 21:40 6,4 C 5,6 C 4,4 C 91 % 1014,5 hPa 0,0 l/m 0 min 0 min 0 W/m 12,9 km/h (3 Bft) 100,00 %
26.01.2020 21:42 6,4 C 5,6 C 4,4 C 91 % 1014,5 hPa 0,0 l/m 0 min 0 min 0 W/m 12,9 km/h (3 Bft) 100,00 %
26.01.2020 21:44 6,4 C 5,6 C 4,4 C 91 % 1014,5 hPa 0,0 l/m 0 min 0 min 0 W/m 16,1 km/h (3 Bft) 97,87 %
26.01.2020 21:46 6,4 C 5,6 C 4,4 C 91 % 1014,5 hPa 0,0 l/m 0 min 0 min 0 W/m 12,9 km/h (3 Bft) 97,87 %
26.01.2020 21:48 6,3 C 5,6 C 4,4 C 91 % 1014,4 hPa 0,0 l/m 0 min 0 min 0 W/m 16,1 km/h (3 Bft) 100,00 %
26.01.2020 21:50 6,3 C 5,6 C 4,4 C 91 % 1014,4 hPa 0,0 l/m 0 min 0 min 0 W/m 6,4 km/h (2 Bft) 100,00 %
26.01.2020 21:52 6,3 C 5,6 C 4,4 C 91 % 1014,4 hPa 0,0 l/m 0 min 0 min 0 W/m 0,0 km/h (0 Bft) 97,87 %
26.01.2020 21:54 6,3 C 5,6 C 4,4 C 91 % 1014,4 hPa 0,0 l/m 0 min 0 min 0 W/m 12,9 km/h (3 Bft) 100,00 %
26.01.2020 21:56 6,3 C 5,6 C 4,4 C 91 % 1014,4 hPa 0,0 l/m 0 min 0 min 0 W/m 19,3 km/h (3 Bft) 100,00 %
26.01.2020 21:58 6,2 C 5,6 C 4,4 C 91 % 1014,4 hPa 0,0 l/m 0 min 0 min 0 W/m 12,9 km/h (3 Bft) 100,00 %
26.01.2020 22:00 6,2 C 5,6 C 4,4 C 91 % 1014,4 hPa 0,0 l/m 0 min 0 min 0 W/m 12,9 km/h (3 Bft) 100,00 %
26.01.2020 22:02 6,2 C 5,6 C 4,4 C 91 % 1014,3 hPa 0,0 l/m 0 min 0 min 0 W/m 12,9 km/h (3 Bft) 97,83 %
26.01.2020 22:04 6,2 C 5,6 C 4,4 C 91 % 1014,3 hPa 0,0 l/m 0 min 0 min 0 W/m 16,1 km/h (3 Bft) 100,00 %
26.01.2020 22:06 6,2 C 5,6 C 4,4 C 91 % 1014,3 hPa 0,0 l/m 0 min 0 min 0 W/m 16,1 km/h (3 Bft) 97,87 %
26.01.2020 22:08 6,1 C 5,0 C 4,4 C 91 % 1014,2 hPa 0,0 l/m 0 min 0 min 0 W/m 19,3 km/h (3 Bft) 97,87 %
26.01.2020 22:10 6,1 C 5,0 C 4,4 C 91 % 1014,2 hPa 0,0 l/m 0 min 0 min 0 W/m 12,9 km/h (3 Bft) 100,00 %
26.01.2020 22:12 6,1 C 5,0 C 4,4 C 91 % 1014,2 hPa 0,0 l/m 0 min 0 min 0 W/m 16,1 km/h (3 Bft) 97,87 %
26.01.2020 22:14 6,1 C 5,0 C 4,4 C 92 % 1014,1 hPa 0,0 l/m 0 min 0 min 0 W/m 19,3 km/h (3 Bft) 100,00 %
26.01.2020 22:16 6,1 C 5,0 C 4,4 C 92 % 1014,1 hPa 0,0 l/m 0 min 0 min 0 W/m 19,3 km/h (3 Bft) 97,87 %
26.01.2020 22:18 6,1 C 5,0 C 4,4 C 92 % 1014,1 hPa 0,0 l/m 0 min 0 min 0 W/m 12,9 km/h (3 Bft) 100,00 %
26.01.2020 22:20 6,0 C 5,0 C 4,4 C 92 % 1014,0 hPa 0,0 l/m 0 min 0 min 0 W/m 19,3 km/h (3 Bft) 95,74 %
26.01.2020 22:22 5,9 C 5,0 C 4,4 C 92 % 1014,0 hPa 0,0 l/m 0 min 0 min 0 W/m 19,3 km/h (3 Bft) 100,00 %
26.01.2020 22:24 5,9 C 5,0 C 4,4 C 92 % 1014,0 hPa 0,0 l/m 0 min 0 min 0 W/m 16,1 km/h (3 Bft) 100,00 %
26.01.2020 22:26 5,9 C 5,0 C 4,4 C 92 % 1014,0 hPa 0,0 l/m 0 min 0 min 0 W/m 16,1 km/h (3 Bft) 97,83 %
26.01.2020 22:28 5,9 C 5,0 C 4,4 C 92 % 1013,9 hPa 0,0 l/m 0 min 0 min 0 W/m 16,1 km/h (3 Bft) 100,00 %
26.01.2020 22:30 5,8 C 5,0 C 4,4 C 92 % 1014,0 hPa 0,0 l/m 0 min 0 min 0 W/m 16,1 km/h (3 Bft) 100,00 %
26.01.2020 22:32 5,8 C 5,0 C 4,4 C 92 % 1014,0 hPa 0,0 l/m 0 min 0 min 0 W/m 25,7 km/h (4 Bft) 100,00 %
26.01.2020 22:34 5,8 C 5,0 C 4,4 C 92 % 1013,9 hPa 0,0 l/m 0 min 0 min 0 W/m 22,5 km/h (4 Bft) 100,00 %
26.01.2020 22:36 5,8 C 5,0 C 4,4 C 92 % 1014,0 hPa 0,0 l/m 0 min 0 min 0 W/m 19,3 km/h (3 Bft) 100,00 %
26.01.2020 22:38 5,8 C 5,0 C 4,4 C 92 % 1013,9 hPa 0,0 l/m 0 min 0 min 0 W/m 16,1 km/h (3 Bft) 100,00 %
26.01.2020 22:40 5,8 C 5,0 C 3,9 C 92 % 1013,9 hPa 0,0 l/m 0 min 0 min 0 W/m 19,3 km/h (3 Bft) 100,00 %
26.01.2020 22:42 5,7 C 5,0 C 4,4 C 92 % 1013,9 hPa 0,0 l/m 0 min 0 min 0 W/m 16,1 km/h (3 Bft) 100,00 %
26.01.2020 22:44 5,7 C 5,0 C 3,9 C 92 % 1013,9 hPa 0,0 l/m 0 min 0 min 0 W/m 16,1 km/h (3 Bft) 100,00 %
26.01.2020 22:46 5,7 C 5,0 C 3,9 C 92 % 1013,9 hPa 0,0 l/m 0 min 0 min 0 W/m 22,5 km/h (4 Bft) 100,00 %
26.01.2020 22:48 5,7 C 5,0 C 3,9 C 92 % 1013,9 hPa 0,0 l/m 0 min 0 min 0 W/m 16,1 km/h (3 Bft) 95,65 %
26.01.2020 22:50 5,7 C 5,0 C 3,9 C 92 % 1013,9 hPa 0,0 l/m 0 min 0 min 0 W/m 19,3 km/h (3 Bft) 97,87 %
26.01.2020 22:52 5,7 C 5,0 C 3,9 C 93 % 1013,7 hPa 0,0 l/m 0 min 0 min 0 W/m 16,1 km/h (3 Bft) 97,87 %
26.01.2020 22:54 5,6 C 5,0 C 3,9 C 92 % 1013,8 hPa 0,0 l/m 0 min 0 min 0 W/m 19,3 km/h (3 Bft) 95,74 %
26.01.2020 22:56 5,6 C 5,0 C 3,9 C 92 % 1013,7 hPa 0,0 l/m 0 min 0 min 0 W/m 19,3 km/h (3 Bft) 95,74 %
26.01.2020 22:58 5,6 C 4,4 C 3,9 C 92 % 1013,7 hPa 0,0 l/m 0 min 0 min 0 W/m 16,1 km/h (3 Bft) 97,87 %
26.01.2020 23:00 5,6 C 4,4 C 3,9 C 93 % 1013,7 hPa 0,0 l/m 0 min 0 min 0 W/m 22,5 km/h (4 Bft) 95,65 %
26.01.2020 23:02 5,6 C 4,4 C 3,9 C 93 % 1013,7 hPa 0,0 l/m 0 min 0 min 0 W/m 19,3 km/h (3 Bft) 95,74 %
26.01.2020 23:04 5,6 C 4,4 C 3,9 C 93 % 1013,7 hPa 0,0 l/m 0 min 0 min 0 W/m 12,9 km/h (3 Bft) 95,74 %
26.01.2020 23:06 5,6 C 4,4 C 3,9 C 93 % 1013,7 hPa 0,0 l/m 0 min 0 min 0 W/m 19,3 km/h (3 Bft) 93,62 %
26.01.2020 23:08 5,5 C 4,4 C 3,9 C 93 % 1013,6 hPa 0,0 l/m 0 min 0 min 0 W/m 22,5 km/h (4 Bft) 91,49 %
26.01.2020 23:10 5,5 C 4,4 C 3,9 C 93 % 1013,6 hPa 0,0 l/m 0 min 0 min 0 W/m 25,7 km/h (4 Bft) 93,62 %
26.01.2020 23:12 5,5 C 4,4 C 3,9 C 93 % 1013,6 hPa 0,0 l/m 0 min 0 min 0 W/m 19,3 km/h (3 Bft) 95,65 %
26.01.2020 23:14 5,5 C 4,4 C 3,9 C 93 % 1013,6 hPa 0,0 l/m 0 min 0 min 0 W/m 19,3 km/h (3 Bft) 91,49 %
26.01.2020 23:16 5,5 C 4,4 C 3,9 C 93 % 1013,5 hPa 0,0 l/m 0 min 0 min 0 W/m 16,1 km/h (3 Bft) 95,74 %
26.01.2020 23:18 5,4 C 4,4 C 3,9 C 93 % 1013,5 hPa 0,0 l/m 0 min 0 min 0 W/m 22,5 km/h (4 Bft) 95,74 %
26.01.2020 23:20 5,4 C 4,4 C 3,9 C 93 % 1013,5 hPa 0,0 l/m 0 min 0 min 0 W/m 25,7 km/h (4 Bft) 93,62 %
26.01.2020 23:22 5,4 C 4,4 C 3,9 C 93 % 1013,5 hPa 0,0 l/m 0 min 0 min 0 W/m 19,3 km/h (3 Bft) 93,62 %
26.01.2020 23:24 5,4 C 4,4 C 3,9 C 93 % 1013,5 hPa 0,0 l/m 0 min 0 min 0 W/m 22,5 km/h (4 Bft) 93,48 %
26.01.2020 23:26 5,4 C 4,4 C 3,9 C 93 % 1013,4 hPa 0,0 l/m 0 min 0 min 0 W/m 19,3 km/h (3 Bft) 93,62 %
26.01.2020 23:28 5,3 C 4,4 C 3,9 C 93 % 1013,4 hPa 0,0 l/m 0 min 0 min 0 W/m 19,3 km/h (3 Bft) 91,49 %
26.01.2020 23:30 5,3 C 4,4 C 3,9 C 93 % 1013,4 hPa 0,0 l/m 0 min 0 min 0 W/m 19,3 km/h (3 Bft) 93,62 %
26.01.2020 23:32 5,3 C 4,4 C 3,9 C 93 % 1013,4 hPa 0,0 l/m 0 min 0 min 0 W/m 19,3 km/h (3 Bft) 93,62 %
26.01.2020 23:34 5,3 C 4,4 C 3,9 C 93 % 1013,5 hPa 0,0 l/m 0 min 0 min 0 W/m 12,9 km/h (3 Bft) 95,74 %
26.01.2020 23:36 5,3 C 4,4 C 3,9 C 93 % 1013,5 hPa 0,0 l/m 0 min 0 min 0 W/m 22,5 km/h (4 Bft) 95,65 %
26.01.2020 23:38 5,3 C 4,4 C 3,9 C 93 % 1013,5 hPa 0,0 l/m 0 min 0 min 0 W/m 19,3 km/h (3 Bft) 93,62 %
26.01.2020 23:40 5,3 C 4,4 C 3,9 C 94 % 1013,5 hPa 0,0 l/m 0 min 0 min 0 W/m 22,5 km/h (4 Bft) 95,74 %
26.01.2020 23:42 5,3 C 4,4 C 3,9 C 94 % 1013,6 hPa 0,0 l/m 0 min 0 min 0 W/m 16,1 km/h (3 Bft) 95,74 %
26.01.2020 23:44 5,3 C 4,4 C 3,9 C 94 % 1013,5 hPa 0,0 l/m 0 min 0 min 0 W/m 19,3 km/h (3 Bft) 93,62 %
26.01.2020 23:46 5,3 C 4,4 C 3,9 C 94 % 1013,6 hPa 0,0 l/m 0 min 0 min 0 W/m 19,3 km/h (3 Bft) 93,62 %
26.01.2020 23:48 5,3 C 4,4 C 3,9 C 94 % 1013,5 hPa 0,0 l/m 0 min 0 min 0 W/m 16,1 km/h (3 Bft) 95,65 %
26.01.2020 23:50 5,3 C 4,4 C 3,9 C 94 % 1013,5 hPa 0,0 l/m 0 min 0 min 0 W/m 19,3 km/h (3 Bft) 95,74 %
26.01.2020 23:52 5,3 C 4,4 C 3,9 C 94 % 1013,5 hPa 0,0 l/m 0 min 0 min 0 W/m 16,1 km/h (3 Bft) 95,74 %
26.01.2020 23:54 5,3 C 4,4 C 3,9 C 94 % 1013,5 hPa 0,0 l/m 0 min 0 min 0 W/m 16,1 km/h (3 Bft) 93,62 %
26.01.2020 23:56 5,3 C 4,4 C 3,9 C 94 % 1013,5 hPa 0,0 l/m 0 min 0 min 0 W/m 19,3 km/h (3 Bft) 95,74 %
26.01.2020 23:58 5,3 C 4,4 C 3,9 C 94 % 1013,5 hPa 0,0 l/m 0 min 0 min 0 W/m 12,9 km/h (3 Bft) 93,48 %
_ Min-Zeit 08:08 04:42 07:52 15:20 23:26 - - - - 00:10 06:44
Minimum _ 1,2 C 0,6 C 0,0 C 84 % 1013,4 hPa - - - - 0,0 km/h (0 Bft) 55,56 %
_ Max-Zeit 15:04 13:32 12:40 00:14 00:00 00:00 10:50 00:00 12:00 17:10 00:02
Maximum _ 9,6 C 12,8 C 8,9 C 100 % 1020,5 hPa 0,0 l/m 2 min 0 min 378 W/m 32,2 km/h
SO (5 Bft)
100,00 %
Durchschnitt _ 4,7 C 4,7 C 3,6 C 95 % 1016,6 hPa #0,0 l/m #3:56 h #0 min. 154 W/m 15,3 km/h (3 Bft) 96,69 %
© 2020 W. Hausmann